Time,TemperatureF,DewpointF,PressureIn,WindDirection,WindDirectionDegrees,WindSpeedMPH,WindSpeedGustMPH,Humidity,HourlyPrecipIn,Conditions,Clouds,dailyrainin,SolarRadiationWatts/m^2,SoftwareType,DateUTC
2013-06-18 00:01:00,67.8,58.1,29.88,NW,311,0.0,0.0,71,0.00,,,0.00,0,Wunderground v.1.15,2013-06-18 05:01:00,
2013-06-18 00:04:00,67.7,58.0,29.88,NW,311,0.0,0.0,71,0.00,,,0.00,0,Wunderground v.1.15,2013-06-18 05:04:00,
2013-06-18 00:06:00,67.7,57.6,29.88,NW,311,0.0,0.0,70,0.00,,,0.00,0,Wunderground v.1.15,2013-06-18 05:06:00,
2013-06-18 00:07:00,67.8,57.3,29.88,NW,311,0.0,0.0,69,0.00,,,0.00,0,Wunderground v.1.15,2013-06-18 05:07:00,
2013-06-18 00:09:00,67.9,57.4,29.88,NW,311,0.0,0.0,69,0.00,,,0.00,0,Wunderground v.1.15,2013-06-18 05:09:00,
2013-06-18 00:12:00,68.0,57.0,29.88,NW,311,0.0,0.0,68,0.00,,,0.00,0,Wunderground v.1.15,2013-06-18 05:12:00,
2013-06-18 00:14:00,68.2,56.8,29.88,NW,311,0.0,0.0,67,0.00,,,0.00,0,Wunderground v.1.15,2013-06-18 05:14:00,
2013-06-18 00:17:00,68.3,56.5,29.88,NW,311,0.0,0.0,66,0.00,,,0.00,0,Wunderground v.1.15,2013-06-18 05:17:00,
2013-06-18 00:18:00,68.3,56.5,29.88,NW,311,0.0,0.0,66,0.00,,,0.00,0,Wunderground v.1.15,2013-06-18 05:18:00,
2013-06-18 00:19:00,68.4,57.0,29.88,NW,311,0.0,0.0,67,0.00,,,0.00,0,Wunderground v.1.15,2013-06-18 05:19:00,
2013-06-18 00:20:00,68.3,56.9,29.88,NW,311,0.0,0.0,67,0.00,,,0.00,0,Wunderground v.1.15,2013-06-18 05:20:00,
2013-06-18 00:22:00,68.2,56.8,29.88,NW,311,0.0,0.0,67,0.00,,,0.00,0,Wunderground v.1.15,2013-06-18 05:22:00,
2013-06-18 00:25:00,67.9,58.1,29.88,NW,311,0.0,0.0,71,0.00,,,0.00,0,Wunderground v.1.15,2013-06-18 05:25:00,
2013-06-18 00:29:00,67.1,58.2,29.88,NW,311,0.0,0.0,73,0.00,,,0.00,0,Wunderground v.1.15,2013-06-18 05:29:00,
2013-06-18 00:31:00,66.8,57.5,29.88,NW,311,0.0,0.0,72,0.00,,,0.00,0,Wunderground v.1.15,2013-06-18 05:31:00,
2013-06-18 00:32:00,66.8,57.9,29.88,NW,311,0.0,0.0,73,0.00,,,0.00,0,Wunderground v.1.15,2013-06-18 05:32:00,
2013-06-18 00:36:00,66.9,58.3,29.88,NW,311,0.0,1.0,74,0.00,,,0.00,0,Wunderground v.1.15,2013-06-18 05:36:00,
2013-06-18 00:39:00,67.1,58.5,29.88,NW,311,0.0,1.0,74,0.00,,,0.00,0,Wunderground v.1.15,2013-06-18 05:39:00,
2013-06-18 00:42:00,67.0,58.4,29.88,NW,311,0.0,0.0,74,0.00,,,0.00,0,Wunderground v.1.15,2013-06-18 05:42:00,
2013-06-18 00:43:00,67.0,58.4,29.88,NW,311,0.0,0.0,74,0.00,,,0.00,0,Wunderground v.1.15,2013-06-18 05:43:00,
2013-06-18 00:45:00,66.9,58.0,29.88,NW,311,0.0,0.0,73,0.00,,,0.00,0,Wunderground v.1.15,2013-06-18 05:45:00,
2013-06-18 00:47:00,66.9,58.3,29.88,NW,311,0.0,0.0,74,0.00,,,0.00,0,Wunderground v.1.15,2013-06-18 05:47:00,
2013-06-18 00:48:00,66.8,58.2,29.88,NW,311,0.0,0.0,74,0.00,,,0.00,0,Wunderground v.1.15,2013-06-18 05:48:00,
2013-06-18 00:49:00,66.6,58.1,29.88,NW,311,0.0,0.0,74,0.00,,,0.00,0,Wunderground v.1.15,2013-06-18 05:49:00,
2013-06-18 00:52:00,66.3,58.1,29.88,NW,311,0.0,0.0,75,0.00,,,0.00,0,Wunderground v.1.15,2013-06-18 05:52:00,
2013-06-18 00:53:00,66.3,58.1,29.88,NW,311,0.0,0.0,75,0.00,,,0.00,0,Wunderground v.1.15,2013-06-18 05:53:00,
2013-06-18 00:54:00,66.2,58.0,29.88,NW,311,0.0,0.0,75,0.00,,,0.00,0,Wunderground v.1.15,2013-06-18 05:54:00,
2013-06-18 00:55:00,66.1,57.9,29.88,NW,311,0.0,0.0,75,0.00,,,0.00,0,Wunderground v.1.15,2013-06-18 05:55:00,
2013-06-18 01:00:00,65.9,58.1,29.88,NW,311,0.0,0.0,76,0.00,,,0.00,0,Wunderground v.1.15,2013-06-18 06:00:00,
2013-06-18 01:01:00,65.9,58.1,29.88,NW,311,0.0,0.0,76,0.00,,,0.00,0,Wunderground v.1.15,2013-06-18 06:01:00,
2013-06-18 01:02:00,65.8,58.4,29.88,NW,311,0.0,0.0,77,0.00,,,0.00,0,Wunderground v.1.15,2013-06-18 06:02:00,
2013-06-18 01:03:00,65.8,58.4,29.88,NW,311,0.0,0.0,77,0.00,,,0.00,0,Wunderground v.1.15,2013-06-18 06:03:00,
2013-06-18 01:06:00,65.3,57.5,29.88,NW,311,0.0,0.0,76,0.00,,,0.00,0,Wunderground v.1.15,2013-06-18 06:06:00,
2013-06-18 01:07:00,65.1,58.1,29.88,NW,311,0.0,0.0,78,0.00,,,0.00,0,Wunderground v.1.15,2013-06-18 06:07:00,
2013-06-18 01:08:00,64.8,57.8,29.88,NW,311,0.0,0.0,78,0.00,,,0.00,0,Wunderground v.1.15,2013-06-18 06:08:00,
2013-06-18 01:11:00,64.7,58.0,29.88,NW,311,0.0,0.0,79,0.00,,,0.00,0,Wunderground v.1.15,2013-06-18 06:11:00,
2013-06-18 01:13:00,64.8,58.5,29.88,NW,311,0.0,0.0,80,0.00,,,0.00,0,Wunderground v.1.15,2013-06-18 06:13:00,
2013-06-18 01:15:00,65.0,58.7,29.88,NW,311,0.0,0.0,80,0.00,,,0.00,0,Wunderground v.1.15,2013-06-18 06:15:00,
2013-06-18 01:17:00,65.0,58.7,29.88,NW,311,0.0,0.0,80,0.00,,,0.00,0,Wunderground v.1.15,2013-06-18 06:17:00,
2013-06-18 01:19:00,65.1,59.1,29.88,NW,311,0.0,0.0,81,0.00,,,0.00,0,Wunderground v.1.15,2013-06-18 06:19:00,
2013-06-18 01:20:00,65.2,59.2,29.88,NW,311,0.0,0.0,81,0.00,,,0.00,0,Wunderground v.1.15,2013-06-18 06:20:00,
2013-06-18 01:22:00,65.2,58.9,29.88,NW,311,0.0,0.0,80,0.00,,,0.00,0,Wunderground v.1.15,2013-06-18 06:22:00,
2013-06-18 01:24:00,65.1,58.8,29.88,NW,311,0.0,0.0,80,0.00,,,0.00,0,Wunderground v.1.15,2013-06-18 06:24:00,
2013-06-18 01:27:00,65.0,58.7,29.88,NW,311,0.0,0.0,80,0.00,,,0.00,0,Wunderground v.1.15,2013-06-18 06:27:00,
2013-06-18 01:29:00,64.9,58.6,29.88,NW,311,0.0,0.0,80,0.00,,,0.00,0,Wunderground v.1.15,2013-06-18 06:29:00,
2013-06-18 01:30:00,64.8,58.5,29.88,NW,311,0.0,0.0,80,0.00,,,0.00,0,Wunderground v.1.15,2013-06-18 06:30:00,
2013-06-18 01:32:00,64.6,58.3,29.88,NW,311,0.0,0.0,80,0.00,,,0.00,0,Wunderground v.1.15,2013-06-18 06:32:00,
2013-06-18 01:36:00,64.4,58.4,29.88,NW,311,0.0,0.0,81,0.00,,,0.00,0,Wunderground v.1.15,2013-06-18 06:36:00,
2013-06-18 01:37:00,64.3,58.3,29.88,NW,311,0.0,0.0,81,0.00,,,0.00,0,Wunderground v.1.15,2013-06-18 06:37:00,
2013-06-18 01:38:00,64.2,58.2,29.88,NW,311,0.0,0.0,81,0.00,,,0.00,0,Wunderground v.1.15,2013-06-18 06:38:00,
2013-06-18 01:39:00,64.0,58.4,29.88,NW,311,0.0,0.0,82,0.00,,,0.00,0,Wunderground v.1.15,2013-06-18 06:39:00,
2013-06-18 01:41:00,63.8,58.2,29.88,NW,311,0.0,0.0,82,0.00,,,0.00,0,Wunderground v.1.15,2013-06-18 06:41:00,
2013-06-18 01:43:00,63.7,58.1,29.88,NW,311,0.0,0.0,82,0.00,,,0.00,0,Wunderground v.1.15,2013-06-18 06:43:00,
2013-06-18 01:44:00,63.7,58.1,29.88,NW,311,0.0,0.0,82,0.00,,,0.00,0,Wunderground v.1.15,2013-06-18 06:44:00,
2013-06-18 01:45:00,63.6,58.3,29.88,NW,311,0.0,0.0,83,0.00,,,0.00,0,Wunderground v.1.15,2013-06-18 06:45:00,
2013-06-18 01:48:00,63.8,58.2,29.87,NW,311,0.0,0.0,82,0.00,,,0.00,0,Wunderground v.1.15,2013-06-18 06:48:00,
2013-06-18 01:50:00,64.0,58.4,29.87,NW,311,0.0,0.0,82,0.00,,,0.00,0,Wunderground v.1.15,2013-06-18 06:50:00,
2013-06-18 01:52:00,64.0,58.4,29.87,NW,311,0.0,0.0,82,0.00,,,0.00,0,Wunderground v.1.15,2013-06-18 06:52:00,
2013-06-18 01:53:00,64.1,58.5,29.87,NW,311,0.0,0.0,82,0.00,,,0.00,0,Wunderground v.1.15,2013-06-18 06:53:00,
2013-06-18 01:57:00,64.2,58.2,29.87,NW,311,0.0,0.0,81,0.00,,,0.00,0,Wunderground v.1.15,2013-06-18 06:57:00,
2013-06-18 01:58:00,64.2,57.9,29.86,NW,311,0.0,0.0,80,0.00,,,0.00,0,Wunderground v.1.15,2013-06-18 06:58:00,
2013-06-18 01:59:00,64.2,57.9,29.86,NW,311,0.0,0.0,80,0.00,,,0.00,0,Wunderground v.1.15,2013-06-18 06:59:00,
2013-06-18 02:00:00,64.1,57.8,29.86,NW,311,0.0,0.0,80,0.00,,,0.00,0,Wunderground v.1.15,2013-06-18 07:00:00,
2013-06-18 02:01:00,64.1,58.1,29.86,NW,311,0.0,0.0,81,0.00,,,0.00,0,Wunderground v.1.15,2013-06-18 07:01:00,
2013-06-18 02:02:00,64.0,58.1,29.86,NW,311,0.0,0.0,81,0.00,,,0.00,0,Wunderground v.1.15,2013-06-18 07:02:00,
2013-06-18 02:04:00,64.0,58.1,29.86,NW,311,0.0,1.0,81,0.00,,,0.00,0,Wunderground v.1.15,2013-06-18 07:04:00,
2013-06-18 02:05:00,64.0,58.1,29.87,NW,311,0.0,1.0,81,0.00,,,0.00,0,Wunderground v.1.15,2013-06-18 07:05:00,
2013-06-18 02:06:00,64.0,58.1,29.87,NW,311,0.0,1.0,81,0.00,,,0.00,0,Wunderground v.1.15,2013-06-18 07:06:00,
2013-06-18 02:07:00,64.0,58.4,29.86,NW,311,1.0,1.0,82,0.00,,,0.00,0,Wunderground v.1.15,2013-06-18 07:07:00,
2013-06-18 02:09:00,64.0,58.4,29.86,NW,311,0.0,1.0,82,0.00,,,0.00,0,Wunderground v.1.15,2013-06-18 07:09:00,
2013-06-18 02:11:00,63.9,58.6,29.86,NW,311,0.0,0.0,83,0.00,,,0.00,0,Wunderground v.1.15,2013-06-18 07:11:00,
2013-06-18 02:12:00,63.9,58.6,29.86,NW,311,0.0,0.0,83,0.00,,,0.00,0,Wunderground v.1.15,2013-06-18 07:12:00,
2013-06-18 02:13:00,63.9,58.6,29.87,NW,311,0.0,0.0,83,0.00,,,0.00,0,Wunderground v.1.15,2013-06-18 07:13:00,
2013-06-18 02:16:00,63.7,58.4,29.86,NW,311,0.0,0.0,83,0.00,,,0.00,0,Wunderground v.1.15,2013-06-18 07:16:00,
2013-06-18 02:17:00,63.6,58.3,29.86,NW,311,0.0,0.0,83,0.00,,,0.00,0,Wunderground v.1.15,2013-06-18 07:17:00,
2013-06-18 02:18:00,63.5,58.6,29.86,NW,311,0.0,0.0,84,0.00,,,0.00,0,Wunderground v.1.15,2013-06-18 07:18:00,
2013-06-18 02:19:00,63.5,58.2,29.86,NW,311,0.0,0.0,83,0.00,,,0.00,0,Wunderground v.1.15,2013-06-18 07:19:00,
2013-06-18 02:22:00,63.3,58.0,29.86,NW,311,0.0,0.0,83,0.00,,,0.00,0,Wunderground v.1.15,2013-06-18 07:22:00,
2013-06-18 02:23:00,63.1,57.9,29.86,NW,311,0.0,0.0,83,0.00,,,0.00,0,Wunderground v.1.15,2013-06-18 07:23:00,
2013-06-18 02:24:00,63.0,58.4,29.87,NW,311,0.0,0.0,85,0.00,,,0.00,0,Wunderground v.1.15,2013-06-18 07:24:00,
2013-06-18 02:25:00,62.9,58.3,29.87,NW,311,0.0,0.0,85,0.00,,,0.00,0,Wunderground v.1.15,2013-06-18 07:25:00,
2013-06-18 02:27:00,62.6,58.4,29.87,NW,311,0.0,0.0,86,0.00,,,0.00,0,Wunderground v.1.15,2013-06-18 07:27:00,
2013-06-18 02:29:00,62.2,58.0,29.87,NW,311,0.0,0.0,86,0.00,,,0.00,0,Wunderground v.1.15,2013-06-18 07:29:00,
2013-06-18 02:30:00,62.0,58.1,29.87,NW,311,0.0,0.0,87,0.00,,,0.00,0,Wunderground v.1.15,2013-06-18 07:30:00,
2013-06-18 02:31:00,62.0,58.1,29.87,NW,311,0.0,0.0,87,0.00,,,0.00,0,Wunderground v.1.15,2013-06-18 07:31:00,
2013-06-18 02:32:00,61.8,58.2,29.87,NW,311,0.0,0.0,88,0.00,,,0.00,0,Wunderground v.1.15,2013-06-18 07:32:00,
2013-06-18 02:34:00,61.6,58.0,29.87,NW,311,0.0,0.0,88,0.00,,,0.00,0,Wunderground v.1.15,2013-06-18 07:34:00,
2013-06-18 02:35:00,61.6,58.3,29.87,NW,311,0.0,0.0,89,0.00,,,0.00,0,Wunderground v.1.15,2013-06-18 07:35:00,
2013-06-18 02:36:00,61.7,58.4,29.87,NW,311,0.0,0.0,89,0.00,,,0.00,0,Wunderground v.1.15,2013-06-18 07:36:00,
2013-06-18 02:37:00,61.7,58.4,29.87,NW,311,0.0,0.0,89,0.00,,,0.00,0,Wunderground v.1.15,2013-06-18 07:37:00,
2013-06-18 02:39:00,61.8,58.2,29.87,NW,311,0.0,0.0,88,0.00,,,0.00,0,Wunderground v.1.15,2013-06-18 07:39:00,
2013-06-18 02:41:00,61.8,58.2,29.88,NW,311,0.0,0.0,88,0.00,,,0.00,0,Wunderground v.1.15,2013-06-18 07:41:00,
2013-06-18 02:42:00,61.9,58.3,29.88,NW,311,0.0,0.0,88,0.00,,,0.00,0,Wunderground v.1.15,2013-06-18 07:42:00,
2013-06-18 02:44:00,62.0,58.4,29.88,NW,311,0.0,0.0,88,0.00,,,0.00,0,Wunderground v.1.15,2013-06-18 07:44:00,
2013-06-18 02:45:00,62.0,58.4,29.88,NW,311,0.0,0.0,88,0.00,,,0.00,0,Wunderground v.1.15,2013-06-18 07:45:00,
2013-06-18 02:47:00,62.1,58.2,29.88,NW,311,0.0,0.0,87,0.00,,,0.00,0,Wunderground v.1.15,2013-06-18 07:47:00,
2013-06-18 02:51:00,61.9,58.3,29.87,NW,311,0.0,0.0,88,0.00,,,0.00,0,Wunderground v.1.15,2013-06-18 07:51:00,
2013-06-18 02:52:00,61.8,58.2,29.87,NW,311,0.0,0.0,88,0.00,,,0.00,0,Wunderground v.1.15,2013-06-18 07:52:00,
2013-06-18 02:53:00,61.8,58.2,29.88,NW,311,0.0,0.0,88,0.00,,,0.00,0,Wunderground v.1.15,2013-06-18 07:53:00,
2013-06-18 02:56:00,61.7,58.1,29.87,NW,311,0.0,0.0,88,0.00,,,0.00,0,Wunderground v.1.15,2013-06-18 07:56:00,
2013-06-18 02:57:00,61.6,58.0,29.87,NW,311,0.0,0.0,88,0.00,,,0.00,0,Wunderground v.1.15,2013-06-18 07:57:00,
2013-06-18 02:58:00,61.6,58.0,29.88,NW,311,0.0,0.0,88,0.00,,,0.00,0,Wunderground v.1.15,2013-06-18 07:58:00,
2013-06-18 02:59:00,61.4,57.8,29.87,NW,311,0.0,0.0,88,0.00,,,0.00,0,Wunderground v.1.15,2013-06-18 07:59:00,
2013-06-18 03:03:00,61.3,57.7,29.87,NW,311,0.0,0.0,88,0.00,,,0.00,0,Wunderground v.1.15,2013-06-18 08:03:00,
2013-06-18 03:04:00,61.3,57.7,29.87,NW,311,0.0,0.0,88,0.00,,,0.00,0,Wunderground v.1.15,2013-06-18 08:04:00,
2013-06-18 03:06:00,61.2,57.9,29.88,NW,311,0.0,0.0,89,0.00,,,0.00,0,Wunderground v.1.15,2013-06-18 08:06:00,
2013-06-18 03:08:00,61.3,58.3,29.88,NW,311,0.0,0.0,90,0.00,,,0.00,0,Wunderground v.1.15,2013-06-18 08:08:00,
2013-06-18 03:09:00,61.4,58.4,29.88,NW,311,0.0,0.0,90,0.00,,,0.00,0,Wunderground v.1.15,2013-06-18 08:09:00,
2013-06-18 03:10:00,61.5,58.2,29.88,NW,311,0.0,0.0,89,0.00,,,0.00,0,Wunderground v.1.15,2013-06-18 08:10:00,
2013-06-18 03:13:00,61.6,58.0,29.88,NW,311,0.0,0.0,88,0.00,,,0.00,0,Wunderground v.1.15,2013-06-18 08:13:00,
2013-06-18 03:15:00,61.6,58.0,29.88,NW,311,0.0,0.0,88,0.00,,,0.00,0,Wunderground v.1.15,2013-06-18 08:15:00,
2013-06-18 03:16:00,61.6,58.0,29.87,NW,311,0.0,0.0,88,0.00,,,0.00,0,Wunderground v.1.15,2013-06-18 08:16:00,
2013-06-18 03:18:00,61.8,57.9,29.88,NW,311,0.0,0.0,87,0.00,,,0.00,0,Wunderground v.1.15,2013-06-18 08:18:00,
2013-06-18 03:19:00,61.8,58.2,29.88,NW,311,0.0,0.0,88,0.00,,,0.00,0,Wunderground v.1.15,2013-06-18 08:19:00,
2013-06-18 03:21:00,61.8,58.2,29.88,NW,311,0.0,0.0,88,0.00,,,0.00,0,Wunderground v.1.15,2013-06-18 08:21:00,
2013-06-18 03:22:00,61.9,58.0,29.88,NW,311,0.0,0.0,87,0.00,,,0.00,0,Wunderground v.1.15,2013-06-18 08:22:00,
2013-06-18 03:24:00,62.0,58.1,29.88,NW,311,0.0,0.0,87,0.00,,,0.00,0,Wunderground v.1.15,2013-06-18 08:24:00,
2013-06-18 03:26:00,62.0,58.1,29.88,NW,311,0.0,0.0,87,0.00,,,0.00,0,Wunderground v.1.15,2013-06-18 08:26:00,
2013-06-18 03:27:00,62.0,58.1,29.88,NW,311,0.0,0.0,87,0.00,,,0.00,0,Wunderground v.1.15,2013-06-18 08:27:00,
2013-06-18 03:28:00,62.0,58.1,29.88,NW,311,0.0,0.0,87,0.00,,,0.00,0,Wunderground v.1.15,2013-06-18 08:28:00,
2013-06-18 03:30:00,62.1,58.2,29.88,NW,311,1.0,1.0,87,0.00,,,0.00,0,Wunderground v.1.15,2013-06-18 08:30:00,
2013-06-18 03:33:00,62.2,58.3,29.87,NW,311,0.0,1.0,87,0.00,,,0.00,0,Wunderground v.1.15,2013-06-18 08:33:00,
2013-06-18 03:34:00,62.2,58.3,29.88,NW,311,0.0,1.0,87,0.00,,,0.00,0,Wunderground v.1.15,2013-06-18 08:34:00,
2013-06-18 03:35:00,62.2,58.3,29.87,NW,311,0.0,1.0,87,0.00,,,0.00,0,Wunderground v.1.15,2013-06-18 08:35:00,
2013-06-18 03:37:00,62.3,58.4,29.87,NW,311,0.0,1.0,87,0.00,,,0.00,0,Wunderground v.1.15,2013-06-18 08:37:00,
2013-06-18 03:39:00,62.2,58.3,29.87,NW,311,0.0,1.0,87,0.00,,,0.00,0,Wunderground v.1.15,2013-06-18 08:39:00,
2013-06-18 03:41:00,62.2,58.3,29.87,NW,311,0.0,1.0,87,0.00,,,0.00,0,Wunderground v.1.15,2013-06-18 08:41:00,
2013-06-18 03:42:00,62.2,58.3,29.87,NW,311,0.0,1.0,87,0.00,,,0.00,0,Wunderground v.1.15,2013-06-18 08:42:00,
2013-06-18 03:43:00,62.2,58.3,29.87,NW,311,0.0,1.0,87,0.00,,,0.00,0,Wunderground v.1.15,2013-06-18 08:43:00,
2013-06-18 03:44:00,62.1,57.9,29.87,NW,311,0.0,1.0,86,0.00,,,0.00,0,Wunderground v.1.15,2013-06-18 08:44:00,
2013-06-18 03:46:00,62.1,57.9,29.87,NW,311,0.0,2.0,86,0.00,,,0.00,0,Wunderground v.1.15,2013-06-18 08:46:00,
2013-06-18 03:47:00,62.1,57.9,29.87,NW,311,0.0,2.0,86,0.00,,,0.00,0,Wunderground v.1.15,2013-06-18 08:47:00,
2013-06-18 03:48:00,62.1,57.9,29.87,NW,311,1.0,2.0,86,0.00,,,0.00,0,Wunderground v.1.15,2013-06-18 08:48:00,
2013-06-18 03:49:00,62.1,57.9,29.87,NW,311,0.0,2.0,86,0.00,,,0.00,0,Wunderground v.1.15,2013-06-18 08:49:00,
2013-06-18 03:52:00,62.2,57.6,29.87,NW,306,0.0,0.0,85,0.00,,,0.00,0,Wunderground v.1.15,2013-06-18 08:52:00,
2013-06-18 03:53:00,62.2,57.6,29.87,NW,306,0.0,0.0,85,0.00,,,0.00,0,Wunderground v.1.15,2013-06-18 08:53:00,
2013-06-18 03:55:00,62.3,57.7,29.87,NW,305,0.0,0.0,85,0.00,,,0.00,0,Wunderground v.1.15,2013-06-18 08:55:00,
2013-06-18 03:57:00,62.6,57.7,29.87,NW,305,0.0,1.0,84,0.00,,,0.00,0,Wunderground v.1.15,2013-06-18 08:57:00,
2013-06-18 03:58:00,62.8,57.6,29.87,NW,305,0.0,1.0,83,0.00,,,0.00,0,Wunderground v.1.15,2013-06-18 08:58:00,
2013-06-18 04:01:00,63.2,57.6,29.87,NW,308,0.0,1.0,82,0.00,,,0.00,0,Wunderground v.1.15,2013-06-18 09:01:00,
2013-06-18 04:02:00,63.2,57.6,29.87,NW,308,0.0,1.0,82,0.00,,,0.00,0,Wunderground v.1.15,2013-06-18 09:02:00,
2013-06-18 04:03:00,63.3,57.7,29.87,NW,308,0.0,1.0,82,0.00,,,0.00,0,Wunderground v.1.15,2013-06-18 09:03:00,
2013-06-18 04:04:00,63.4,57.8,29.87,NW,309,0.0,1.0,82,0.00,,,0.00,0,Wunderground v.1.15,2013-06-18 09:04:00,
2013-06-18 04:08:00,63.5,57.9,29.87,NW,309,0.0,2.0,82,0.00,,,0.00,0,Wunderground v.1.15,2013-06-18 09:08:00,
2013-06-18 04:09:00,63.5,57.9,29.87,NW,309,0.0,2.0,82,0.00,,,0.00,0,Wunderground v.1.15,2013-06-18 09:09:00,
2013-06-18 04:14:00,63.4,57.8,29.87,NW,309,0.0,2.0,82,0.00,,,0.00,0,Wunderground v.1.15,2013-06-18 09:14:00,
2013-06-18 04:15:00,63.4,57.8,29.87,NW,309,0.0,2.0,82,0.00,,,0.00,0,Wunderground v.1.15,2013-06-18 09:15:00,
2013-06-18 04:16:00,63.4,57.8,29.87,NW,309,0.0,2.0,82,0.00,,,0.00,0,Wunderground v.1.15,2013-06-18 09:16:00,
2013-06-18 04:17:00,63.3,57.7,29.87,NW,309,0.0,2.0,82,0.00,,,0.00,0,Wunderground v.1.15,2013-06-18 09:17:00,
2013-06-18 04:19:00,63.2,57.6,29.87,NW,309,0.0,2.0,82,0.00,,,0.00,0,Wunderground v.1.15,2013-06-18 09:19:00,
2013-06-18 04:21:00,63.2,57.9,29.88,NW,309,0.0,0.0,83,0.00,,,0.00,0,Wunderground v.1.15,2013-06-18 09:21:00,
2013-06-18 04:22:00,63.2,57.9,29.88,NW,309,0.0,0.0,83,0.00,,,0.00,0,Wunderground v.1.15,2013-06-18 09:22:00,
2013-06-18 04:23:00,63.2,57.9,29.88,NW,309,0.0,0.0,83,0.00,,,0.00,0,Wunderground v.1.15,2013-06-18 09:23:00,
2013-06-18 04:24:00,63.2,57.9,29.88,NW,309,0.0,0.0,83,0.00,,,0.00,0,Wunderground v.1.15,2013-06-18 09:24:00,
2013-06-18 04:26:00,63.2,57.9,29.88,NW,309,0.0,0.0,83,0.00,,,0.00,0,Wunderground v.1.15,2013-06-18 09:26:00,
2013-06-18 04:27:00,63.1,58.2,29.88,NW,309,0.0,0.0,84,0.00,,,0.00,0,Wunderground v.1.15,2013-06-18 09:27:00,
2013-06-18 04:28:00,63.1,58.2,29.88,NW,309,0.0,0.0,84,0.00,,,0.00,0,Wunderground v.1.15,2013-06-18 09:28:00,
2013-06-18 04:29:00,63.0,58.1,29.88,NW,309,0.0,0.0,84,0.00,,,0.00,0,Wunderground v.1.15,2013-06-18 09:29:00,
2013-06-18 04:30:00,62.9,58.0,29.88,NW,309,0.0,0.0,84,0.00,,,0.00,0,Wunderground v.1.15,2013-06-18 09:30:00,
2013-06-18 04:33:00,62.3,58.1,29.88,NW,309,0.0,0.0,86,0.00,,,0.00,0,Wunderground v.1.15,2013-06-18 09:33:00,
2013-06-18 04:34:00,62.1,57.9,29.88,NW,309,0.0,0.0,86,0.00,,,0.00,0,Wunderground v.1.15,2013-06-18 09:34:00,
2013-06-18 04:35:00,61.9,58.0,29.88,NW,309,0.0,0.0,87,0.00,,,0.00,0,Wunderground v.1.15,2013-06-18 09:35:00,
2013-06-18 04:38:00,61.2,57.6,29.88,NW,309,0.0,0.0,88,0.00,,,0.00,0,Wunderground v.1.15,2013-06-18 09:38:00,
2013-06-18 04:39:00,61.1,57.5,29.88,NW,309,0.0,0.0,88,0.00,,,0.00,0,Wunderground v.1.15,2013-06-18 09:39:00,
2013-06-18 04:41:00,60.9,57.6,29.88,NW,309,0.0,0.0,89,0.00,,,0.00,0,Wunderground v.1.15,2013-06-18 09:41:00,
2013-06-18 04:42:00,60.9,57.6,29.88,NW,309,0.0,0.0,89,0.00,,,0.00,0,Wunderground v.1.15,2013-06-18 09:42:00,
2013-06-18 04:43:00,60.8,57.5,29.88,NW,309,0.0,0.0,89,0.00,,,0.00,0,Wunderground v.1.15,2013-06-18 09:43:00,
2013-06-18 04:44:00,60.8,57.5,29.88,NW,309,0.0,0.0,89,0.00,,,0.00,0,Wunderground v.1.15,2013-06-18 09:44:00,
2013-06-18 04:47:00,60.6,57.7,29.89,NW,309,0.0,0.0,90,0.00,,,0.00,0,Wunderground v.1.15,2013-06-18 09:47:00,
2013-06-18 04:49:00,60.5,57.6,29.89,NW,309,0.0,0.0,90,0.00,,,0.00,0,Wunderground v.1.15,2013-06-18 09:49:00,
2013-06-18 04:50:00,60.5,57.6,29.89,NW,309,0.0,0.0,90,0.00,,,0.00,0,Wunderground v.1.15,2013-06-18 09:50:00,
2013-06-18 04:51:00,60.4,57.5,29.89,NW,309,0.0,0.0,90,0.00,,,0.00,0,Wunderground v.1.15,2013-06-18 09:51:00,
2013-06-18 04:53:00,60.4,57.5,29.89,NW,309,0.0,0.0,90,0.00,,,0.00,0,Wunderground v.1.15,2013-06-18 09:53:00,
2013-06-18 04:56:00,60.3,57.7,29.89,NW,309,0.0,0.0,91,0.00,,,0.00,0,Wunderground v.1.15,2013-06-18 09:56:00,
2013-06-18 04:57:00,60.3,57.4,29.89,NW,309,0.0,0.0,90,0.00,,,0.00,0,Wunderground v.1.15,2013-06-18 09:57:00,
2013-06-18 04:59:00,60.3,57.7,29.89,NW,309,0.0,0.0,91,0.00,,,0.00,0,Wunderground v.1.15,2013-06-18 09:59:00,
2013-06-18 05:01:00,60.3,57.4,29.89,NW,309,0.0,0.0,90,0.00,,,0.00,0,Wunderground v.1.15,2013-06-18 10:01:00,
2013-06-18 05:03:00,60.3,57.7,29.89,NW,309,0.0,0.0,91,0.00,,,0.00,0,Wunderground v.1.15,2013-06-18 10:03:00,
2013-06-18 05:04:00,60.3,57.4,29.89,NW,309,0.0,0.0,90,0.00,,,0.00,0,Wunderground v.1.15,2013-06-18 10:04:00,
2013-06-18 05:06:00,60.4,57.8,29.89,NW,309,0.0,0.0,91,0.00,,,0.00,0,Wunderground v.1.15,2013-06-18 10:06:00,
2013-06-18 05:07:00,60.5,57.9,29.89,NW,309,0.0,0.0,91,0.00,,,0.00,0,Wunderground v.1.15,2013-06-18 10:07:00,
2013-06-18 05:08:00,60.5,57.9,29.89,NW,309,0.0,0.0,91,0.00,,,0.00,0,Wunderground v.1.15,2013-06-18 10:08:00,
2013-06-18 05:09:00,60.5,57.6,29.89,NW,309,0.0,0.0,90,0.00,,,0.00,0,Wunderground v.1.15,2013-06-18 10:09:00,
2013-06-18 05:10:00,60.4,57.5,29.89,NW,309,0.0,0.0,90,0.00,,,0.00,0,Wunderground v.1.15,2013-06-18 10:10:00,
2013-06-18 05:11:00,60.3,57.4,29.89,NW,309,0.0,0.0,90,0.00,,,0.00,0,Wunderground v.1.15,2013-06-18 10:11:00,
2013-06-18 05:12:00,60.1,57.2,29.88,NW,309,0.0,0.0,90,0.00,,,0.00,0,Wunderground v.1.15,2013-06-18 10:12:00,
2013-06-18 05:15:00,59.9,57.3,29.88,NW,309,0.0,0.0,91,0.00,,,0.00,0,Wunderground v.1.15,2013-06-18 10:15:00,
2013-06-18 05:16:00,59.8,57.2,29.88,NW,309,0.0,0.0,91,0.00,,,0.00,0,Wunderground v.1.15,2013-06-18 10:16:00,
2013-06-18 05:17:00,59.8,57.2,29.88,NW,309,0.0,0.0,91,0.00,,,0.00,0,Wunderground v.1.15,2013-06-18 10:17:00,
2013-06-18 05:18:00,59.8,57.5,29.88,NW,309,0.0,0.0,92,0.00,,,0.00,0,Wunderground v.1.15,2013-06-18 10:18:00,
2013-06-18 05:19:00,59.9,57.6,29.88,NW,309,0.0,0.0,92,0.00,,,0.00,0,Wunderground v.1.15,2013-06-18 10:19:00,
2013-06-18 05:20:00,59.9,57.6,29.88,NW,309,0.0,0.0,92,0.00,,,0.00,0,Wunderground v.1.15,2013-06-18 10:20:00,
2013-06-18 05:22:00,60.1,57.5,29.89,NW,309,0.0,0.0,91,0.00,,,0.00,0,Wunderground v.1.15,2013-06-18 10:22:00,
2013-06-18 05:23:00,60.1,57.5,29.89,NW,309,0.0,0.0,91,0.00,,,0.00,0,Wunderground v.1.15,2013-06-18 10:23:00,
2013-06-18 05:25:00,60.3,57.4,29.89,NW,309,0.0,0.0,90,0.00,,,0.00,0,Wunderground v.1.15,2013-06-18 10:25:00,
2013-06-18 05:26:00,60.3,57.4,29.89,NW,309,0.0,0.0,90,0.00,,,0.00,0,Wunderground v.1.15,2013-06-18 10:26:00,
2013-06-18 05:27:00,60.3,57.4,29.89,NW,309,0.0,0.0,90,0.00,,,0.00,0,Wunderground v.1.15,2013-06-18 10:27:00,
2013-06-18 05:28:00,60.3,57.4,29.89,NW,309,0.0,0.0,90,0.00,,,0.00,0,Wunderground v.1.15,2013-06-18 10:28:00,
2013-06-18 05:30:00,60.6,58.0,29.89,NW,309,0.0,0.0,91,0.00,,,0.00,0,Wunderground v.1.15,2013-06-18 10:30:00,
2013-06-18 05:32:00,60.6,58.0,29.89,NW,309,0.0,0.0,91,0.00,,,0.00,0,Wunderground v.1.15,2013-06-18 10:32:00,
2013-06-18 05:33:00,60.6,57.7,29.89,NW,309,0.0,0.0,90,0.00,,,0.00,0,Wunderground v.1.15,2013-06-18 10:33:00,
2013-06-18 05:34:00,60.5,57.6,29.90,NW,309,0.0,0.0,90,0.00,,,0.00,0,Wunderground v.1.15,2013-06-18 10:34:00,
2013-06-18 05:36:00,60.4,57.5,29.90,NW,309,0.0,0.0,90,0.00,,,0.00,0,Wunderground v.1.15,2013-06-18 10:36:00,
2013-06-18 05:37:00,60.5,57.6,29.90,NW,309,0.0,0.0,90,0.00,,,0.00,5,Wunderground v.1.15,2013-06-18 10:37:00,
2013-06-18 05:39:00,60.5,57.6,29.90,NW,309,0.0,0.0,90,0.00,,,0.00,5,Wunderground v.1.15,2013-06-18 10:39:00,
2013-06-18 05:41:00,60.6,57.7,29.90,NW,309,0.0,0.0,90,0.00,,,0.00,5,Wunderground v.1.15,2013-06-18 10:41:00,
2013-06-18 05:42:00,60.4,57.1,29.90,NW,309,0.0,0.0,89,0.00,,,0.00,5,Wunderground v.1.15,2013-06-18 10:42:00,
2013-06-18 05:43:00,60.4,57.1,29.90,NW,309,0.0,0.0,89,0.00,,,0.00,5,Wunderground v.1.15,2013-06-18 10:43:00,
2013-06-18 05:44:00,60.3,57.0,29.90,NW,309,0.0,0.0,89,0.00,,,0.00,5,Wunderground v.1.15,2013-06-18 10:44:00,
2013-06-18 05:47:00,60.2,57.6,29.90,NW,309,0.0,0.0,91,0.00,,,0.00,7,Wunderground v.1.15,2013-06-18 10:47:00,
2013-06-18 05:48:00,60.3,57.7,29.90,NW,309,0.0,0.0,91,0.00,,,0.00,9,Wunderground v.1.15,2013-06-18 10:48:00,
2013-06-18 05:49:00,60.2,57.6,29.90,NW,309,0.0,0.0,91,0.00,,,0.00,9,Wunderground v.1.15,2013-06-18 10:49:00,
2013-06-18 05:50:00,60.2,57.6,29.90,NW,309,0.0,0.0,91,0.00,,,0.00,9,Wunderground v.1.15,2013-06-18 10:50:00,
2013-06-18 05:52:00,60.2,57.9,29.90,NW,309,0.0,0.0,92,0.00,,,0.00,11,Wunderground v.1.15,2013-06-18 10:52:00,
2013-06-18 05:54:00,60.2,57.9,29.90,NW,309,0.0,0.0,92,0.00,,,0.00,12,Wunderground v.1.15,2013-06-18 10:54:00,
2013-06-18 05:55:00,60.2,57.9,29.90,NW,309,0.0,0.0,92,0.00,,,0.00,12,Wunderground v.1.15,2013-06-18 10:55:00,
2013-06-18 05:56:00,60.2,57.9,29.90,NW,309,0.0,0.0,92,0.00,,,0.00,12,Wunderground v.1.15,2013-06-18 10:56:00,
2013-06-18 05:59:00,60.2,57.9,29.90,NW,309,0.0,0.0,92,0.00,,,0.00,14,Wunderground v.1.15,2013-06-18 10:59:00,
2013-06-18 06:01:00,60.2,57.9,29.89,NW,309,0.0,0.0,92,0.00,,,0.00,16,Wunderground v.1.15,2013-06-18 11:01:00,
2013-06-18 06:02:00,60.1,57.8,29.89,NW,309,0.0,0.0,92,0.00,,,0.00,16,Wunderground v.1.15,2013-06-18 11:02:00,
2013-06-18 06:03:00,60.1,57.8,29.89,NW,309,0.0,0.0,92,0.00,,,0.00,16,Wunderground v.1.15,2013-06-18 11:03:00,
2013-06-18 06:05:00,60.1,57.8,29.89,NW,309,0.0,0.0,92,0.00,,,0.00,18,Wunderground v.1.15,2013-06-18 11:05:00,
2013-06-18 06:06:00,60.1,58.1,29.89,NW,309,0.0,0.0,93,0.00,,,0.00,18,Wunderground v.1.15,2013-06-18 11:06:00,
2013-06-18 06:07:00,60.1,58.1,29.89,NW,309,0.0,0.0,93,0.00,,,0.00,18,Wunderground v.1.15,2013-06-18 11:07:00,
2013-06-18 06:08:00,60.1,58.1,29.89,NW,309,0.0,0.0,93,0.00,,,0.00,18,Wunderground v.1.15,2013-06-18 11:08:00,
2013-06-18 06:11:00,60.1,58.1,29.90,NW,309,0.0,0.0,93,0.00,,,0.00,19,Wunderground v.1.15,2013-06-18 11:11:00,
2013-06-18 06:13:00,60.2,57.9,29.89,NW,309,0.0,0.0,92,0.00,,,0.00,21,Wunderground v.1.15,2013-06-18 11:13:00,
2013-06-18 06:14:00,60.2,57.9,29.89,NW,309,0.0,0.0,92,0.00,,,0.00,19,Wunderground v.1.15,2013-06-18 11:14:00,
2013-06-18 06:15:00,60.2,57.9,29.89,NW,309,0.0,0.0,92,0.00,,,0.00,19,Wunderground v.1.15,2013-06-18 11:15:00,
2013-06-18 06:16:00,60.2,57.9,29.89,NW,309,0.0,0.0,92,0.00,,,0.00,19,Wunderground v.1.15,2013-06-18 11:16:00,
2013-06-18 06:17:00,60.3,58.0,29.90,NW,309,0.0,0.0,92,0.00,,,0.00,19,Wunderground v.1.15,2013-06-18 11:17:00,
2013-06-18 06:18:00,60.4,58.1,29.89,NW,309,0.0,0.0,92,0.00,,,0.00,21,Wunderground v.1.15,2013-06-18 11:18:00,
2013-06-18 06:20:00,60.6,58.3,29.90,NW,309,0.0,0.0,92,0.00,,,0.00,23,Wunderground v.1.15,2013-06-18 11:20:00,
2013-06-18 06:21:00,60.7,58.4,29.90,NW,309,0.0,0.0,92,0.00,,,0.00,23,Wunderground v.1.15,2013-06-18 11:21:00,
2013-06-18 06:22:00,60.8,58.2,29.90,NW,309,0.0,0.0,91,0.00,,,0.00,25,Wunderground v.1.15,2013-06-18 11:22:00,
2013-06-18 06:25:00,60.8,58.5,29.90,NW,309,0.0,0.0,92,0.00,,,0.00,32,Wunderground v.1.15,2013-06-18 11:25:00,
2013-06-18 06:26:00,60.8,58.5,29.90,NW,309,0.0,0.0,92,0.00,,,0.00,32,Wunderground v.1.15,2013-06-18 11:26:00,
2013-06-18 06:27:00,60.7,58.4,29.90,NW,309,0.0,0.0,92,0.00,,,0.00,35,Wunderground v.1.15,2013-06-18 11:27:00,
2013-06-18 06:30:00,60.6,58.6,29.90,NW,309,0.0,0.0,93,0.00,,,0.00,46,Wunderground v.1.15,2013-06-18 11:30:00,
2013-06-18 06:32:00,60.5,58.5,29.90,NW,309,0.0,0.0,93,0.00,,,0.00,49,Wunderground v.1.15,2013-06-18 11:32:00,
2013-06-18 06:33:00,60.6,58.6,29.90,NW,309,0.0,0.0,93,0.00,,,0.00,49,Wunderground v.1.15,2013-06-18 11:33:00,
2013-06-18 06:35:00,60.7,58.7,29.90,NW,309,0.0,0.0,93,0.00,,,0.00,58,Wunderground v.1.15,2013-06-18 11:35:00,
2013-06-18 06:36:00,60.7,58.7,29.90,NW,309,0.0,0.0,93,0.00,,,0.00,65,Wunderground v.1.15,2013-06-18 11:36:00,
2013-06-18 06:37:00,60.8,58.8,29.90,NW,309,0.0,0.0,93,0.00,,,0.00,65,Wunderground v.1.15,2013-06-18 11:37:00,
2013-06-18 06:39:00,61.0,59.0,29.90,NW,308,0.0,0.0,93,0.00,,,0.00,60,Wunderground v.1.15,2013-06-18 11:39:00,
2013-06-18 06:41:00,61.2,59.2,29.90,NW,308,0.0,0.0,93,0.00,,,0.00,54,Wunderground v.1.15,2013-06-18 11:41:00,
2013-06-18 06:42:00,61.4,59.4,29.90,NW,308,0.0,0.0,93,0.00,,,0.00,53,Wunderground v.1.15,2013-06-18 11:42:00,
2013-06-18 06:44:00,61.5,59.5,29.91,NW,308,0.0,2.0,93,0.00,,,0.00,46,Wunderground v.1.15,2013-06-18 11:44:00,
2013-06-18 06:46:00,61.7,59.7,29.91,NW,308,0.0,2.0,93,0.00,,,0.00,42,Wunderground v.1.15,2013-06-18 11:46:00,
2013-06-18 06:48:00,61.9,59.9,29.91,West,263,3.0,4.0,93,0.00,,,0.00,39,Wunderground v.1.15,2013-06-18 11:48:00,
2013-06-18 06:51:00,62.1,59.7,29.91,WSW,238,6.0,6.0,92,0.00,,,0.00,33,Wunderground v.1.15,2013-06-18 11:51:00,
2013-06-18 06:53:00,62.1,59.4,29.91,WSW,246,5.0,6.0,91,0.00,,,0.00,35,Wunderground v.1.15,2013-06-18 11:53:00,
2013-06-18 06:55:00,62.2,59.5,29.91,SW,236,3.0,6.0,91,0.00,,,0.00,37,Wunderground v.1.15,2013-06-18 11:55:00,
2013-06-18 06:57:00,62.4,59.7,29.91,SW,236,2.0,6.0,91,0.00,,,0.00,37,Wunderground v.1.15,2013-06-18 11:57:00,
2013-06-18 06:59:00,62.5,59.5,29.91,WSW,238,5.0,6.0,90,0.00,,,0.00,35,Wunderground v.1.15,2013-06-18 11:59:00,
2013-06-18 07:01:00,62.6,59.6,29.91,WSW,246,3.0,4.0,90,0.00,,,0.00,37,Wunderground v.1.15,2013-06-18 12:01:00,
2013-06-18 07:03:00,62.8,59.8,29.91,WSW,246,2.0,4.0,90,0.00,,,0.00,39,Wunderground v.1.15,2013-06-18 12:03:00,
2013-06-18 07:05:00,62.9,59.9,29.91,WSW,254,0.0,4.0,90,0.00,,,0.00,44,Wunderground v.1.15,2013-06-18 12:05:00,
2013-06-18 07:07:00,63.0,59.7,29.91,WSW,255,2.0,4.0,89,0.00,,,0.00,47,Wunderground v.1.15,2013-06-18 12:07:00,
2013-06-18 07:10:00,63.2,59.9,29.92,West,272,2.0,2.0,89,0.00,,,0.00,56,Wunderground v.1.15,2013-06-18 12:10:00,
2013-06-18 07:11:00,63.2,59.9,29.92,West,275,1.0,2.0,89,0.00,,,0.00,58,Wunderground v.1.15,2013-06-18 12:11:00,
2013-06-18 07:14:00,63.5,59.9,29.92,WNW,295,2.0,3.0,88,0.00,,,0.00,62,Wunderground v.1.15,2013-06-18 12:14:00,
2013-06-18 07:16:00,63.6,60.0,29.92,NW,304,1.0,3.0,88,0.00,,,0.00,62,Wunderground v.1.15,2013-06-18 12:16:00,
2013-06-18 07:17:00,63.6,60.0,29.92,NW,304,2.0,3.0,88,0.00,,,0.00,62,Wunderground v.1.15,2013-06-18 12:17:00,
2013-06-18 07:19:00,63.8,60.2,29.92,NW,304,1.0,3.0,88,0.00,,,0.00,60,Wunderground v.1.15,2013-06-18 12:19:00,
2013-06-18 07:22:00,63.9,60.0,29.92,NW,304,2.0,2.0,87,0.00,,,0.00,60,Wunderground v.1.15,2013-06-18 12:22:00,
2013-06-18 07:24:00,63.9,60.3,29.92,NW,304,0.0,3.0,88,0.00,,,0.00,67,Wunderground v.1.15,2013-06-18 12:24:00,
2013-06-18 07:25:00,64.0,60.4,29.92,NW,304,3.0,3.0,88,0.00,,,0.00,72,Wunderground v.1.15,2013-06-18 12:25:00,
2013-06-18 07:28:00,64.2,60.6,29.92,WNW,292,2.0,3.0,88,0.00,,,0.00,88,Wunderground v.1.15,2013-06-18 12:28:00,
2013-06-18 07:29:00,64.3,60.7,29.92,WNW,292,0.0,3.0,88,0.00,,,0.00,100,Wunderground v.1.15,2013-06-18 12:29:00,
2013-06-18 07:30:00,64.3,60.7,29.92,WNW,292,0.0,2.0,88,0.00,,,0.00,107,Wunderground v.1.15,2013-06-18 12:30:00,
2013-06-18 07:31:00,64.3,60.7,29.92,WNW,292,0.0,2.0,88,0.00,,,0.00,118,Wunderground v.1.15,2013-06-18 12:31:00,
2013-06-18 07:33:00,64.5,60.5,29.92,WNW,287,1.0,2.0,87,0.00,,,0.00,137,Wunderground v.1.15,2013-06-18 12:33:00,
2013-06-18 07:34:00,64.5,60.5,29.92,WNW,287,0.0,2.0,87,0.00,,,0.00,155,Wunderground v.1.15,2013-06-18 12:34:00,
2013-06-18 07:35:00,64.6,60.6,29.92,WNW,287,0.0,2.0,87,0.00,,,0.00,167,Wunderground v.1.15,2013-06-18 12:35:00,
2013-06-18 07:37:00,64.7,61.1,29.92,WNW,287,0.0,2.0,88,0.00,,,0.00,135,Wunderground v.1.15,2013-06-18 12:37:00,
2013-06-18 07:38:00,64.8,60.8,29.91,WNW,286,0.0,2.0,87,0.00,,,0.00,116,Wunderground v.1.15,2013-06-18 12:38:00,
2013-06-18 07:40:00,64.8,60.8,29.91,WNW,286,0.0,0.0,87,0.00,,,0.00,95,Wunderground v.1.15,2013-06-18 12:40:00,
2013-06-18 07:41:00,64.8,60.5,29.91,WNW,286,0.0,0.0,86,0.00,,,0.00,84,Wunderground v.1.15,2013-06-18 12:41:00,
2013-06-18 07:44:00,64.9,60.6,29.91,WNW,286,0.0,0.0,86,0.00,,,0.00,69,Wunderground v.1.15,2013-06-18 12:44:00,
2013-06-18 07:45:00,64.9,60.6,29.91,WNW,286,0.0,0.0,86,0.00,,,0.00,69,Wunderground v.1.15,2013-06-18 12:45:00,
2013-06-18 07:46:00,65.0,60.7,29.91,WNW,286,0.0,0.0,86,0.00,,,0.00,69,Wunderground v.1.15,2013-06-18 12:46:00,
2013-06-18 07:47:00,65.1,60.8,29.91,WNW,286,0.0,0.0,86,0.00,,,0.00,267,Wunderground v.1.15,2013-06-18 12:47:00,
2013-06-18 07:49:00,65.4,61.1,29.91,WNW,286,2.0,3.0,86,0.00,,,0.00,297,Wunderground v.1.15,2013-06-18 12:49:00,
2013-06-18 07:50:00,65.6,61.3,29.91,WNW,290,3.0,3.0,86,0.00,,,0.00,299,Wunderground v.1.15,2013-06-18 12:50:00,
2013-06-18 07:52:00,65.9,61.6,29.91,WNW,296,3.0,3.0,86,0.00,,,0.00,304,Wunderground v.1.15,2013-06-18 12:52:00,
2013-06-18 07:55:00,66.3,61.3,29.91,NW,307,4.0,4.0,84,0.00,,,0.00,313,Wunderground v.1.15,2013-06-18 12:55:00,
2013-06-18 07:56:00,66.6,60.9,29.91,WNW,298,2.0,5.0,82,0.00,,,0.00,318,Wunderground v.1.15,2013-06-18 12:56:00,
2013-06-18 07:58:00,66.9,61.2,29.91,NW,308,4.0,5.0,82,0.00,,,0.00,325,Wunderground v.1.15,2013-06-18 12:58:00,
2013-06-18 08:00:00,67.2,61.5,29.91,WNW,284,6.0,6.0,82,0.00,,,0.00,327,Wunderground v.1.15,2013-06-18 13:00:00,
2013-06-18 08:03:00,67.7,61.3,29.91,WNW,300,4.0,6.0,80,0.00,,,0.00,339,Wunderground v.1.15,2013-06-18 13:03:00,
2013-06-18 08:04:00,68.0,61.6,29.91,WNW,292,7.0,7.0,80,0.00,,,0.00,348,Wunderground v.1.15,2013-06-18 13:04:00,
2013-06-18 08:05:00,68.1,61.3,29.91,WNW,287,6.0,7.0,79,0.00,,,0.00,350,Wunderground v.1.15,2013-06-18 13:05:00,
2013-06-18 08:09:00,68.5,61.4,29.92,West,276,7.0,8.0,78,0.00,,,0.00,371,Wunderground v.1.15,2013-06-18 13:09:00,
2013-06-18 08:10:00,68.6,61.1,29.92,WNW,290,8.0,8.0,77,0.00,,,0.00,381,Wunderground v.1.15,2013-06-18 13:10:00,
2013-06-18 08:11:00,68.6,61.5,29.92,WNW,293,7.0,9.0,78,0.00,,,0.00,330,Wunderground v.1.15,2013-06-18 13:11:00,
2013-06-18 08:12:00,68.7,61.2,29.92,WNW,301,8.0,9.0,77,0.00,,,0.00,318,Wunderground v.1.15,2013-06-18 13:12:00,
2013-06-18 08:15:00,69.0,61.9,29.92,WNW,285,7.0,9.0,78,0.00,,,0.00,255,Wunderground v.1.15,2013-06-18 13:15:00,
2013-06-18 08:16:00,69.2,61.3,29.92,WNW,294,8.0,9.0,76,0.00,,,0.00,255,Wunderground v.1.15,2013-06-18 13:16:00,
2013-06-18 08:17:00,69.1,61.2,29.92,WNW,292,5.0,9.0,76,0.00,,,0.00,192,Wunderground v.1.15,2013-06-18 13:17:00,
2013-06-18 08:21:00,69.6,61.7,29.92,West,271,6.0,7.0,76,0.00,,,0.00,429,Wunderground v.1.15,2013-06-18 13:21:00,
2013-06-18 08:22:00,69.7,61.4,29.92,West,266,8.0,8.0,75,0.00,,,0.00,425,Wunderground v.1.15,2013-06-18 13:22:00,
2013-06-18 08:27:00,70.3,61.6,29.92,WNW,288,4.0,8.0,74,0.00,,,0.00,422,Wunderground v.1.15,2013-06-18 13:27:00,
2013-06-18 08:28:00,70.4,61.3,29.92,West,271,6.0,8.0,73,0.00,,,0.00,422,Wunderground v.1.15,2013-06-18 13:28:00,
2013-06-18 08:29:00,70.5,61.4,29.92,West,274,7.0,8.0,73,0.00,,,0.00,425,Wunderground v.1.15,2013-06-18 13:29:00,
2013-06-18 08:32:00,70.9,61.4,29.92,West,277,6.0,8.0,72,0.00,,,0.00,432,Wunderground v.1.15,2013-06-18 13:32:00,
2013-06-18 08:33:00,71.0,61.5,29.92,West,281,6.0,8.0,72,0.00,,,0.00,434,Wunderground v.1.15,2013-06-18 13:33:00,
2013-06-18 08:34:00,71.1,61.6,29.92,West,267,6.0,8.0,72,0.00,,,0.00,436,Wunderground v.1.15,2013-06-18 13:34:00,
2013-06-18 08:35:00,71.3,61.8,29.92,West,281,5.0,8.0,72,0.00,,,0.00,441,Wunderground v.1.15,2013-06-18 13:35:00,
2013-06-18 08:37:00,71.5,62.0,29.92,West,263,6.0,8.0,72,0.00,,,0.00,446,Wunderground v.1.15,2013-06-18 13:37:00,
2013-06-18 08:40:00,71.7,61.8,29.93,WNW,286,5.0,6.0,71,0.00,,,0.00,452,Wunderground v.1.15,2013-06-18 13:40:00,
2013-06-18 08:41:00,71.9,61.6,29.93,WNW,292,6.0,7.0,70,0.00,,,0.00,455,Wunderground v.1.15,2013-06-18 13:41:00,
2013-06-18 08:44:00,72.2,62.3,29.93,WNW,291,8.0,10.0,71,0.00,,,0.00,464,Wunderground v.1.15,2013-06-18 13:44:00,
2013-06-18 08:45:00,72.3,62.0,29.93,WNW,282,8.0,10.0,70,0.00,,,0.00,468,Wunderground v.1.15,2013-06-18 13:45:00,
2013-06-18 08:46:00,72.4,62.1,29.93,WNW,298,6.0,10.0,70,0.00,,,0.00,471,Wunderground v.1.15,2013-06-18 13:46:00,
2013-06-18 08:49:00,72.7,61.9,29.93,WNW,288,6.0,10.0,69,0.00,,,0.00,480,Wunderground v.1.15,2013-06-18 13:49:00,
2013-06-18 08:51:00,72.9,62.1,29.93,WNW,296,8.0,9.0,69,0.00,,,0.00,485,Wunderground v.1.15,2013-06-18 13:51:00,
2013-06-18 08:52:00,73.0,61.8,29.92,WNW,303,7.0,9.0,68,0.00,,,0.00,489,Wunderground v.1.15,2013-06-18 13:52:00,
2013-06-18 08:53:00,73.0,61.8,29.92,WNW,290,8.0,9.0,68,0.00,,,0.00,490,Wunderground v.1.15,2013-06-18 13:53:00,
2013-06-18 08:55:00,73.2,62.4,29.93,WNW,300,7.0,9.0,69,0.00,,,0.00,497,Wunderground v.1.15,2013-06-18 13:55:00,
2013-06-18 08:57:00,73.5,63.1,29.93,NW,315,6.0,9.0,70,0.00,,,0.00,504,Wunderground v.1.15,2013-06-18 13:57:00,
2013-06-18 08:58:00,73.6,63.2,29.93,NW,321,6.0,9.0,70,0.00,,,0.00,504,Wunderground v.1.15,2013-06-18 13:58:00,
2013-06-18 09:02:00,73.8,62.6,29.93,NW,307,7.0,11.0,68,0.00,,,0.00,517,Wunderground v.1.15,2013-06-18 14:02:00,
2013-06-18 09:03:00,73.8,62.6,29.92,WNW,294,8.0,11.0,68,0.00,,,0.00,520,Wunderground v.1.15,2013-06-18 14:03:00,
2013-06-18 09:05:00,74.0,63.2,29.92,NW,315,7.0,11.0,69,0.00,,,0.00,526,Wunderground v.1.15,2013-06-18 14:05:00,
2013-06-18 09:06:00,74.1,62.4,29.92,NW,318,5.0,11.0,67,0.00,,,0.00,527,Wunderground v.1.15,2013-06-18 14:06:00,
2013-06-18 09:07:00,74.1,62.9,29.92,NW,326,3.0,11.0,68,0.00,,,0.00,533,Wunderground v.1.15,2013-06-18 14:07:00,
2013-06-18 09:08:00,74.1,62.9,29.92,NW,313,7.0,11.0,68,0.00,,,0.00,533,Wunderground v.1.15,2013-06-18 14:08:00,
2013-06-18 09:09:00,74.2,62.1,29.92,NW,321,5.0,11.0,66,0.00,,,0.00,543,Wunderground v.1.15,2013-06-18 14:09:00,
2013-06-18 09:11:00,74.3,63.1,29.92,NW,311,7.0,7.0,68,0.00,,,0.00,547,Wunderground v.1.15,2013-06-18 14:11:00,
2013-06-18 09:13:00,74.6,62.1,29.92,NNW,331,4.0,9.0,65,0.00,,,0.00,541,Wunderground v.1.15,2013-06-18 14:13:00,
2013-06-18 09:14:00,74.6,62.1,29.93,NW,306,6.0,9.0,65,0.00,,,0.00,548,Wunderground v.1.15,2013-06-18 14:14:00,
2013-06-18 09:15:00,74.7,62.1,29.92,NW,304,6.0,9.0,65,0.00,,,0.00,563,Wunderground v.1.15,2013-06-18 14:15:00,
2013-06-18 09:18:00,74.8,62.7,29.92,NW,325,2.0,9.0,66,0.00,,,0.00,561,Wunderground v.1.15,2013-06-18 14:18:00,
2013-06-18 09:19:00,74.8,62.2,29.92,NW,309,4.0,9.0,65,0.00,,,0.00,575,Wunderground v.1.15,2013-06-18 14:19:00,
2013-06-18 09:21:00,74.8,62.2,29.93,NW,313,6.0,6.0,65,0.00,,,0.00,577,Wunderground v.1.15,2013-06-18 14:21:00,
2013-06-18 09:23:00,75.0,62.0,29.93,WNW,294,5.0,8.0,64,0.00,,,0.00,578,Wunderground v.1.15,2013-06-18 14:23:00,
2013-06-18 09:25:00,75.2,61.7,29.93,NW,319,1.0,8.0,63,0.00,,,0.00,570,Wunderground v.1.15,2013-06-18 14:25:00,
2013-06-18 09:26:00,75.2,61.7,29.93,NW,310,3.0,8.0,63,0.00,,,0.00,594,Wunderground v.1.15,2013-06-18 14:26:00,
2013-06-18 09:28:00,75.3,61.4,29.93,WNW,302,6.0,8.0,62,0.00,,,0.00,599,Wunderground v.1.15,2013-06-18 14:28:00,
2013-06-18 09:29:00,75.3,61.8,29.93,NW,309,5.0,8.0,63,0.00,,,0.00,601,Wunderground v.1.15,2013-06-18 14:29:00,
2013-06-18 09:30:00,75.4,61.5,29.93,NW,306,5.0,5.0,62,0.00,,,0.00,603,Wunderground v.1.15,2013-06-18 14:30:00,
2013-06-18 09:31:00,75.4,61.9,29.93,WNW,298,7.0,7.0,63,0.00,,,0.00,605,Wunderground v.1.15,2013-06-18 14:31:00,
2013-06-18 09:34:00,75.7,61.3,29.93,NW,315,4.0,9.0,61,0.00,,,0.00,613,Wunderground v.1.15,2013-06-18 14:34:00,
2013-06-18 09:36:00,75.8,61.4,29.93,WNW,286,7.0,9.0,61,0.00,,,0.00,621,Wunderground v.1.15,2013-06-18 14:36:00,
2013-06-18 09:37:00,75.8,60.9,29.93,WNW,295,7.0,9.0,60,0.00,,,0.00,621,Wunderground v.1.15,2013-06-18 14:37:00,
2013-06-18 09:40:00,75.6,61.7,29.92,NW,315,2.0,6.0,62,0.00,,,0.00,629,Wunderground v.1.15,2013-06-18 14:40:00,
2013-06-18 09:41:00,75.6,61.7,29.92,WNW,290,5.0,6.0,62,0.00,,,0.00,633,Wunderground v.1.15,2013-06-18 14:41:00,
2013-06-18 09:42:00,75.7,61.8,29.92,WNW,298,7.0,9.0,62,0.00,,,0.00,636,Wunderground v.1.15,2013-06-18 14:42:00,
2013-06-18 09:45:00,76.0,61.1,29.92,NW,316,5.0,9.0,60,0.00,,,0.00,643,Wunderground v.1.15,2013-06-18 14:45:00,
2013-06-18 09:47:00,76.2,62.2,29.92,NW,304,6.0,9.0,62,0.00,,,0.00,649,Wunderground v.1.15,2013-06-18 14:47:00,
2013-06-18 09:48:00,76.2,61.3,29.92,NNW,331,1.0,9.0,60,0.00,,,0.00,652,Wunderground v.1.15,2013-06-18 14:48:00,
2013-06-18 09:49:00,76.2,62.2,29.92,NW,319,3.0,9.0,62,0.00,,,0.00,652,Wunderground v.1.15,2013-06-18 14:49:00,
2013-06-18 09:50:00,76.3,61.4,29.92,NW,313,7.0,7.0,60,0.00,,,0.00,659,Wunderground v.1.15,2013-06-18 14:50:00,
2013-06-18 09:52:00,76.3,61.9,29.92,North,360,3.0,8.0,61,0.00,,,0.00,668,Wunderground v.1.15,2013-06-18 14:52:00,
2013-06-18 09:54:00,76.4,62.0,29.92,NW,323,3.0,8.0,61,0.00,,,0.00,671,Wunderground v.1.15,2013-06-18 14:54:00,
2013-06-18 09:55:00,76.4,62.0,29.92,NW,310,4.0,8.0,61,0.00,,,0.00,671,Wunderground v.1.15,2013-06-18 14:55:00,
2013-06-18 09:58:00,76.5,62.0,29.92,NW,308,8.0,8.0,61,0.00,,,0.00,684,Wunderground v.1.15,2013-06-18 14:58:00,
2013-06-18 09:59:00,76.7,61.8,29.92,WNW,296,7.0,8.0,60,0.00,,,0.00,605,Wunderground v.1.15,2013-06-18 14:59:00,
2013-06-18 10:00:00,76.8,61.9,29.92,WNW,293,6.0,6.0,60,0.00,,,0.00,605,Wunderground v.1.15,2013-06-18 15:00:00,
2013-06-18 10:01:00,77.0,62.0,29.92,NW,304,5.0,6.0,60,0.00,,,0.00,680,Wunderground v.1.15,2013-06-18 15:01:00,
2013-06-18 10:04:00,77.3,62.3,29.92,NW,315,5.0,8.0,60,0.00,,,0.00,693,Wunderground v.1.15,2013-06-18 15:04:00,
2013-06-18 10:06:00,77.4,61.9,29.92,NW,311,8.0,10.0,59,0.00,,,0.00,689,Wunderground v.1.15,2013-06-18 15:06:00,
2013-06-18 10:07:00,77.3,62.8,29.92,NW,313,3.0,10.0,61,0.00,,,0.00,698,Wunderground v.1.15,2013-06-18 15:07:00,
2013-06-18 10:08:00,77.3,62.8,29.92,NW,313,3.0,10.0,61,0.00,,,0.00,705,Wunderground v.1.15,2013-06-18 15:08:00,
2013-06-18 10:09:00,77.3,62.8,29.92,NW,304,8.0,10.0,61,0.00,,,0.00,710,Wunderground v.1.15,2013-06-18 15:09:00,
2013-06-18 10:11:00,77.4,61.9,29.92,NW,306,6.0,8.0,59,0.00,,,0.00,708,Wunderground v.1.15,2013-06-18 15:11:00,
2013-06-18 10:13:00,77.4,62.4,29.92,WNW,303,8.0,8.0,60,0.00,,,0.00,719,Wunderground v.1.15,2013-06-18 15:13:00,
2013-06-18 10:15:00,77.5,61.1,29.93,WNW,302,6.0,9.0,57,0.00,,,0.00,726,Wunderground v.1.15,2013-06-18 15:15:00,
2013-06-18 10:16:00,77.6,62.6,29.93,NNW,338,2.0,9.0,60,0.00,,,0.00,728,Wunderground v.1.15,2013-06-18 15:16:00,
2013-06-18 10:18:00,77.8,61.8,29.93,NW,304,7.0,9.0,58,0.00,,,0.00,733,Wunderground v.1.15,2013-06-18 15:18:00,
2013-06-18 10:19:00,77.8,60.8,29.93,NW,310,7.0,9.0,56,0.00,,,0.00,728,Wunderground v.1.15,2013-06-18 15:19:00,
2013-06-18 10:21:00,77.9,61.9,29.93,NW,321,2.0,8.0,58,0.00,,,0.00,737,Wunderground v.1.15,2013-06-18 15:21:00,
2013-06-18 10:22:00,77.9,62.9,29.93,NW,310,4.0,8.0,60,0.00,,,0.00,733,Wunderground v.1.15,2013-06-18 15:22:00,
2013-06-18 10:24:00,77.8,62.8,29.93,NW,317,10.0,10.0,60,0.00,,,0.00,742,Wunderground v.1.15,2013-06-18 15:24:00,
2013-06-18 10:25:00,77.7,62.2,29.93,NW,313,5.0,10.0,59,0.00,,,0.00,738,Wunderground v.1.15,2013-06-18 15:25:00,
2013-06-18 10:27:00,77.8,62.8,29.93,NNW,338,3.0,11.0,60,0.00,,,0.00,744,Wunderground v.1.15,2013-06-18 15:27:00,
2013-06-18 10:28:00,78.0,63.0,29.93,NW,312,3.0,11.0,60,0.00,,,0.00,744,Wunderground v.1.15,2013-06-18 15:28:00,
2013-06-18 10:29:00,78.0,63.0,29.93,WNW,301,3.0,11.0,60,0.00,,,0.00,752,Wunderground v.1.15,2013-06-18 15:29:00,
2013-06-18 10:32:00,78.0,61.0,29.93,North,355,2.0,7.0,56,0.00,,,0.00,763,Wunderground v.1.15,2013-06-18 15:32:00,
2013-06-18 10:34:00,78.1,63.1,29.93,NNE,18,4.0,7.0,60,0.00,,,0.00,765,Wunderground v.1.15,2013-06-18 15:34:00,
2013-06-18 10:35:00,78.2,62.2,29.92,NW,306,3.0,7.0,58,0.00,,,0.00,751,Wunderground v.1.15,2013-06-18 15:35:00,
2013-06-18 10:37:00,78.4,62.9,29.92,North,11,1.0,7.0,59,0.00,,,0.00,770,Wunderground v.1.15,2013-06-18 15:37:00,
2013-06-18 10:40:00,78.5,63.9,29.92,NNW,327,4.0,6.0,61,0.00,,,0.00,789,Wunderground v.1.15,2013-06-18 15:40:00,
2013-06-18 10:41:00,78.5,63.0,29.92,NNW,333,5.0,6.0,59,0.00,,,0.00,793,Wunderground v.1.15,2013-06-18 15:41:00,
2013-06-18 10:42:00,78.5,62.5,29.92,NW,322,7.0,7.0,58,0.00,,,0.00,763,Wunderground v.1.15,2013-06-18 15:42:00,
2013-06-18 10:43:00,78.4,61.9,29.92,NW,312,2.0,7.0,57,0.00,,,0.00,705,Wunderground v.1.15,2013-06-18 15:43:00,
2013-06-18 10:46:00,78.4,60.9,29.92,NW,315,5.0,8.0,55,0.00,,,0.00,795,Wunderground v.1.15,2013-06-18 15:46:00,
2013-06-18 10:48:00,78.4,61.9,29.92,NW,323,2.0,9.0,57,0.00,,,0.00,802,Wunderground v.1.15,2013-06-18 15:48:00,
2013-06-18 10:49:00,78.4,63.4,29.92,NNE,15,2.0,9.0,60,0.00,,,0.00,817,Wunderground v.1.15,2013-06-18 15:49:00,
2013-06-18 10:52:00,78.4,61.9,29.92,NW,319,2.0,5.0,57,0.00,,,0.00,819,Wunderground v.1.15,2013-06-18 15:52:00,
2013-06-18 10:53:00,78.4,61.9,29.92,NNE,26,1.0,5.0,57,0.00,,,0.00,819,Wunderground v.1.15,2013-06-18 15:53:00,
2013-06-18 10:54:00,78.4,62.4,29.92,NNW,331,1.0,5.0,58,0.00,,,0.00,819,Wunderground v.1.15,2013-06-18 15:54:00,
2013-06-18 10:55:00,78.6,62.1,29.92,NNE,27,3.0,5.0,57,0.00,,,0.00,823,Wunderground v.1.15,2013-06-18 15:55:00,
2013-06-18 10:58:00,79.2,62.1,29.92,NNE,18,2.0,5.0,56,0.00,,,0.00,828,Wunderground v.1.15,2013-06-18 15:58:00,
2013-06-18 11:00:00,79.0,60.9,29.92,WNW,302,3.0,3.0,54,0.00,,,0.00,830,Wunderground v.1.15,2013-06-18 16:00:00,
2013-06-18 11:01:00,78.8,61.3,29.92,WNW,296,1.0,4.0,55,0.00,,,0.00,830,Wunderground v.1.15,2013-06-18 16:01:00,
2013-06-18 11:02:00,78.8,61.3,29.92,NW,305,7.0,7.0,55,0.00,,,0.00,826,Wunderground v.1.15,2013-06-18 16:02:00,
2013-06-18 11:03:00,79.0,62.5,29.92,NW,315,4.0,7.0,57,0.00,,,0.00,835,Wunderground v.1.15,2013-06-18 16:03:00,
2013-06-18 11:06:00,78.8,62.8,29.92,WNW,299,2.0,7.0,58,0.00,,,0.00,830,Wunderground v.1.15,2013-06-18 16:06:00,
2013-06-18 11:08:00,78.9,61.9,29.92,NNE,30,3.0,7.0,56,0.00,,,0.00,840,Wunderground v.1.15,2013-06-18 16:08:00,
2013-06-18 11:09:00,79.3,63.2,29.92,NW,319,4.0,7.0,58,0.00,,,0.00,844,Wunderground v.1.15,2013-06-18 16:09:00,
2013-06-18 11:10:00,79.4,60.8,29.92,North,5,3.0,3.0,53,0.00,,,0.00,844,Wunderground v.1.15,2013-06-18 16:10:00,
2013-06-18 11:12:00,79.3,60.1,29.92,NNW,331,2.0,7.0,52,0.00,,,0.00,856,Wunderground v.1.15,2013-06-18 16:12:00,
2013-06-18 11:15:00,79.4,61.8,29.92,NNW,346,4.0,7.0,55,0.00,,,0.00,875,Wunderground v.1.15,2013-06-18 16:15:00,
2013-06-18 11:16:00,79.5,61.4,29.92,NW,310,7.0,7.0,54,0.00,,,0.00,875,Wunderground v.1.15,2013-06-18 16:16:00,
2013-06-18 11:18:00,79.5,59.8,29.92,NNW,334,5.0,8.0,51,0.00,,,0.00,904,Wunderground v.1.15,2013-06-18 16:18:00,
2013-06-18 11:20:00,79.4,60.2,29.92,NNE,17,4.0,4.0,52,0.00,,,0.00,937,Wunderground v.1.15,2013-06-18 16:20:00,
2013-06-18 11:21:00,79.4,60.2,29.92,NNE,17,3.0,4.0,52,0.00,,,0.00,937,Wunderground v.1.15,2013-06-18 16:21:00,
2013-06-18 11:23:00,79.5,60.3,29.92,WNW,292,6.0,6.0,52,0.00,,,0.00,928,Wunderground v.1.15,2013-06-18 16:23:00,
2013-06-18 11:25:00,79.2,57.8,29.92,NNE,33,6.0,8.0,48,0.00,,,0.00,160,Wunderground v.1.15,2013-06-18 16:25:00,
2013-06-18 11:26:00,79.2,60.1,29.92,NW,323,7.0,8.0,52,0.00,,,0.00,160,Wunderground v.1.15,2013-06-18 16:26:00,
2013-06-18 11:27:00,79.3,60.1,29.92,North,355,1.0,8.0,52,0.00,,,0.00,160,Wunderground v.1.15,2013-06-18 16:27:00,
2013-06-18 11:28:00,79.5,60.3,29.92,NNW,346,1.0,8.0,52,0.00,,,0.00,944,Wunderground v.1.15,2013-06-18 16:28:00,
2013-06-18 11:30:00,79.9,60.7,29.92,NW,311,7.0,7.0,52,0.00,,,0.00,949,Wunderground v.1.15,2013-06-18 16:30:00,
2013-06-18 11:31:00,80.1,58.6,29.92,WNW,298,5.0,8.0,48,0.00,,,0.00,969,Wunderground v.1.15,2013-06-18 16:31:00,
2013-06-18 11:32:00,80.1,58.6,29.92,WNW,294,4.0,8.0,48,0.00,,,0.00,969,Wunderground v.1.15,2013-06-18 16:32:00,
2013-06-18 11:34:00,80.4,61.7,29.92,NW,325,0.0,11.0,53,0.00,,,0.00,902,Wunderground v.1.15,2013-06-18 16:34:00,
2013-06-18 11:37:00,80.4,61.7,29.92,NNW,341,0.0,11.0,53,0.00,,,0.00,974,Wunderground v.1.15,2013-06-18 16:37:00,
2013-06-18 11:38:00,80.3,60.5,29.92,NW,320,1.0,11.0,51,0.00,,,0.00,977,Wunderground v.1.15,2013-06-18 16:38:00,
2013-06-18 11:40:00,80.1,59.2,29.92,NNE,24,1.0,4.0,49,0.00,,,0.00,860,Wunderground v.1.15,2013-06-18 16:40:00,
2013-06-18 11:41:00,80.2,59.3,29.92,WNW,303,3.0,4.0,49,0.00,,,0.00,860,Wunderground v.1.15,2013-06-18 16:41:00,
2013-06-18 11:43:00,80.3,57.6,29.92,West,273,4.0,9.0,46,0.00,,,0.00,960,Wunderground v.1.15,2013-06-18 16:43:00,
2013-06-18 11:44:00,80.5,61.3,29.92,WNW,303,1.0,9.0,52,0.00,,,0.00,1042,Wunderground v.1.15,2013-06-18 16:44:00,
2013-06-18 11:45:00,80.4,58.9,29.92,NW,309,5.0,9.0,48,0.00,,,0.00,269,Wunderground v.1.15,2013-06-18 16:45:00,
2013-06-18 11:46:00,80.2,58.7,29.92,NW,306,3.0,9.0,48,0.00,,,0.00,239,Wunderground v.1.15,2013-06-18 16:46:00,
2013-06-18 11:48:00,79.6,57.0,29.92,West,280,2.0,9.0,46,0.00,,,0.00,213,Wunderground v.1.15,2013-06-18 16:48:00,
2013-06-18 11:49:00,79.2,57.8,29.92,West,280,0.0,9.0,48,0.00,,,0.00,213,Wunderground v.1.15,2013-06-18 16:49:00,
2013-06-18 11:51:00,79.1,58.9,29.91,WNW,300,5.0,7.0,50,0.00,,,0.00,213,Wunderground v.1.15,2013-06-18 16:51:00,
2013-06-18 11:52:00,79.2,60.1,29.91,NNE,22,9.0,9.0,52,0.00,,,0.00,269,Wunderground v.1.15,2013-06-18 16:52:00,
2013-06-18 11:53:00,79.3,60.1,29.91,NNE,14,5.0,9.0,52,0.00,,,0.00,1025,Wunderground v.1.15,2013-06-18 16:53:00,
2013-06-18 11:55:00,79.6,58.8,29.91,NNW,335,1.0,9.0,49,0.00,,,0.00,1032,Wunderground v.1.15,2013-06-18 16:55:00,
2013-06-18 11:56:00,80.0,61.3,29.91,North,5,9.0,9.0,53,0.00,,,0.00,1016,Wunderground v.1.15,2013-06-18 16:56:00,
2013-06-18 11:58:00,80.4,57.1,29.91,North,355,3.0,9.0,45,0.00,,,0.00,1030,Wunderground v.1.15,2013-06-18 16:58:00,
2013-06-18 11:59:00,80.5,59.0,29.91,North,350,4.0,9.0,48,0.00,,,0.00,1030,Wunderground v.1.15,2013-06-18 16:59:00,
2013-06-18 12:00:00,80.7,57.4,29.91,NNE,16,5.0,5.0,45,0.00,,,0.00,1034,Wunderground v.1.15,2013-06-18 17:00:00,
2013-06-18 12:01:00,80.7,57.4,29.92,NE,51,0.0,6.0,45,0.00,,,0.00,1041,Wunderground v.1.15,2013-06-18 17:01:00,
2013-06-18 12:03:00,80.6,58.5,29.92,NNE,15,0.0,6.0,47,0.00,,,0.00,1041,Wunderground v.1.15,2013-06-18 17:03:00,
2013-06-18 12:07:00,79.8,58.4,29.92,NE,41,2.0,6.0,48,0.00,,,0.00,1041,Wunderground v.1.15,2013-06-18 17:07:00,
2013-06-18 12:08:00,79.8,58.4,29.92,North,5,1.0,6.0,48,0.00,,,0.00,986,Wunderground v.1.15,2013-06-18 17:08:00,
2013-06-18 12:09:00,80.0,59.7,29.92,NW,306,4.0,6.0,50,0.00,,,0.00,986,Wunderground v.1.15,2013-06-18 17:09:00,
2013-06-18 12:13:00,80.8,59.3,29.92,WNW,284,10.0,10.0,48,0.00,,,0.00,1005,Wunderground v.1.15,2013-06-18 17:13:00,
2013-06-18 12:14:00,81.0,58.3,29.91,WNW,294,10.0,10.0,46,0.00,,,0.00,1011,Wunderground v.1.15,2013-06-18 17:14:00,
2013-06-18 12:15:00,81.2,57.8,29.92,WNW,292,4.0,10.0,45,0.00,,,0.00,1011,Wunderground v.1.15,2013-06-18 17:15:00,
2013-06-18 12:19:00,81.1,60.1,29.92,NNE,22,1.0,10.0,49,0.00,,,0.00,1011,Wunderground v.1.15,2013-06-18 17:19:00,
2013-06-18 12:20:00,81.3,62.0,29.92,North,355,2.0,4.0,52,0.00,,,0.00,1002,Wunderground v.1.15,2013-06-18 17:20:00,
2013-06-18 12:21:00,81.4,60.4,29.91,North,360,1.0,4.0,49,0.00,,,0.00,998,Wunderground v.1.15,2013-06-18 17:21:00,
2013-06-18 12:26:00,81.6,61.7,29.92,NNW,338,2.0,4.0,51,0.00,,,0.00,974,Wunderground v.1.15,2013-06-18 17:26:00,
2013-06-18 12:27:00,81.7,61.2,29.92,NNW,330,7.0,7.0,50,0.00,,,0.00,974,Wunderground v.1.15,2013-06-18 17:27:00,
2013-06-18 12:28:00,81.7,59.5,29.91,NW,322,5.0,8.0,47,0.00,,,0.00,905,Wunderground v.1.15,2013-06-18 17:28:00,
2013-06-18 12:32:00,81.1,57.7,29.91,WNW,292,4.0,7.0,45,0.00,,,0.00,997,Wunderground v.1.15,2013-06-18 17:32:00,
2013-06-18 12:33:00,81.1,57.7,29.91,WNW,292,1.0,7.0,45,0.00,,,0.00,997,Wunderground v.1.15,2013-06-18 17:33:00,
2013-06-18 12:34:00,81.0,58.9,29.91,NW,312,6.0,7.0,47,0.00,,,0.00,993,Wunderground v.1.15,2013-06-18 17:34:00,
2013-06-18 12:36:00,81.1,59.0,29.91,North,5,5.0,7.0,47,0.00,,,0.00,1000,Wunderground v.1.15,2013-06-18 17:36:00,
2013-06-18 12:38:00,81.1,60.7,29.91,NW,316,2.0,7.0,50,0.00,,,0.00,997,Wunderground v.1.15,2013-06-18 17:38:00,
2013-06-18 12:39:00,81.2,60.2,29.91,North,5,3.0,7.0,49,0.00,,,0.00,998,Wunderground v.1.15,2013-06-18 17:39:00,
2013-06-18 12:40:00,81.2,59.6,29.91,NNE,27,1.0,7.0,48,0.00,,,0.00,1013,Wunderground v.1.15,2013-06-18 17:40:00,
2013-06-18 12:41:00,81.2,59.6,29.91,NE,44,3.0,7.0,48,0.00,,,0.00,1028,Wunderground v.1.15,2013-06-18 17:41:00,
2013-06-18 12:43:00,81.1,59.0,29.91,NW,317,3.0,7.0,47,0.00,,,0.00,1055,Wunderground v.1.15,2013-06-18 17:43:00,
2013-06-18 12:44:00,81.2,61.4,29.91,NW,314,5.0,7.0,51,0.00,,,0.00,1034,Wunderground v.1.15,2013-06-18 17:44:00,
2013-06-18 12:45:00,81.4,59.2,29.91,NNE,28,1.0,7.0,47,0.00,,,0.00,1034,Wunderground v.1.15,2013-06-18 17:45:00,
2013-06-18 12:46:00,81.4,59.2,29.91,NNE,28,2.0,7.0,47,0.00,,,0.00,1034,Wunderground v.1.15,2013-06-18 17:46:00,
2013-06-18 12:48:00,81.3,59.1,29.91,North,9,1.0,7.0,47,0.00,,,0.00,1021,Wunderground v.1.15,2013-06-18 17:48:00,
2013-06-18 12:50:00,81.3,60.3,29.91,NW,323,2.0,3.0,49,0.00,,,0.00,1025,Wunderground v.1.15,2013-06-18 17:50:00,
2013-06-18 12:51:00,81.5,61.1,29.91,NNW,348,2.0,7.0,50,0.00,,,0.00,1028,Wunderground v.1.15,2013-06-18 17:51:00,
2013-06-18 12:52:00,81.6,61.2,29.91,North,355,3.0,7.0,50,0.00,,,0.00,1021,Wunderground v.1.15,2013-06-18 17:52:00,
2013-06-18 12:55:00,81.6,60.0,29.91,WNW,288,3.0,7.0,48,0.00,,,0.00,1028,Wunderground v.1.15,2013-06-18 17:55:00,
2013-06-18 12:56:00,81.6,58.8,29.91,NNE,31,3.0,7.0,46,0.00,,,0.00,1030,Wunderground v.1.15,2013-06-18 17:56:00,
2013-06-18 12:57:00,81.4,58.0,29.91,NNW,327,0.0,7.0,45,0.00,,,0.00,1023,Wunderground v.1.15,2013-06-18 17:57:00,
2013-06-18 12:58:00,81.4,59.8,29.91,NW,311,2.0,7.0,48,0.00,,,0.00,1021,Wunderground v.1.15,2013-06-18 17:58:00,
2013-06-18 13:00:00,81.5,60.5,29.91,NW,319,6.0,6.0,49,0.00,,,0.00,1032,Wunderground v.1.15,2013-06-18 18:00:00,
2013-06-18 13:01:00,81.7,60.1,29.91,NNW,339,3.0,6.0,48,0.00,,,0.00,1027,Wunderground v.1.15,2013-06-18 18:01:00,
2013-06-18 13:03:00,81.8,58.4,29.91,NW,311,7.0,9.0,45,0.00,,,0.00,1039,Wunderground v.1.15,2013-06-18 18:03:00,
2013-06-18 13:05:00,82.3,59.4,29.92,NW,317,3.0,9.0,46,0.00,,,0.00,1048,Wunderground v.1.15,2013-06-18 18:05:00,
2013-06-18 13:07:00,82.2,59.4,29.91,NNE,14,2.0,9.0,46,0.00,,,0.00,1053,Wunderground v.1.15,2013-06-18 18:07:00,
2013-06-18 13:09:00,82.1,57.4,29.91,NE,43,3.0,9.0,43,0.00,,,0.00,1065,Wunderground v.1.15,2013-06-18 18:09:00,
2013-06-18 13:11:00,81.2,57.2,29.91,NNE,16,5.0,5.0,44,0.00,,,0.00,151,Wunderground v.1.15,2013-06-18 18:11:00,
2013-06-18 13:12:00,80.4,57.1,29.91,NW,325,5.0,5.0,45,0.00,,,0.00,1051,Wunderground v.1.15,2013-06-18 18:12:00,
2013-06-18 13:13:00,80.3,57.6,29.91,WNW,285,4.0,11.0,46,0.00,,,0.00,1051,Wunderground v.1.15,2013-06-18 18:13:00,
2013-06-18 13:14:00,80.3,57.6,29.91,WNW,286,10.0,11.0,46,0.00,,,0.00,1053,Wunderground v.1.15,2013-06-18 18:14:00,
2013-06-18 13:16:00,80.8,58.1,29.91,NW,308,7.0,11.0,46,0.00,,,0.00,1049,Wunderground v.1.15,2013-06-18 18:16:00,
2013-06-18 13:18:00,81.0,57.7,29.91,West,281,3.0,11.0,45,0.00,,,0.00,1069,Wunderground v.1.15,2013-06-18 18:18:00,
2013-06-18 13:19:00,81.3,59.7,29.91,NW,325,3.0,11.0,48,0.00,,,0.00,1060,Wunderground v.1.15,2013-06-18 18:19:00,
2013-06-18 13:20:00,81.8,61.9,29.91,North,360,3.0,6.0,51,0.00,,,0.00,1055,Wunderground v.1.15,2013-06-18 18:20:00,
2013-06-18 13:21:00,82.0,60.4,29.91,NNE,12,4.0,6.0,48,0.00,,,0.00,1041,Wunderground v.1.15,2013-06-18 18:21:00,
2013-06-18 13:24:00,81.7,57.7,29.91,West,273,2.0,6.0,44,0.00,,,0.00,1053,Wunderground v.1.15,2013-06-18 18:24:00,
2013-06-18 13:25:00,81.9,60.3,29.91,NW,306,10.0,12.0,48,0.00,,,0.00,1072,Wunderground v.1.15,2013-06-18 18:25:00,
2013-06-18 13:26:00,82.1,59.3,29.91,WNW,283,11.0,12.0,46,0.00,,,0.00,1072,Wunderground v.1.15,2013-06-18 18:26:00,
2013-06-18 13:27:00,82.5,59.0,29.91,WNW,303,10.0,12.0,45,0.00,,,0.00,1076,Wunderground v.1.15,2013-06-18 18:27:00,
2013-06-18 13:30:00,83.0,58.8,29.90,NNE,19,5.0,6.0,44,0.00,,,0.00,1046,Wunderground v.1.15,2013-06-18 18:30:00,
2013-06-18 13:31:00,82.9,59.4,29.91,NNW,339,1.0,7.0,45,0.00,,,0.00,1041,Wunderground v.1.15,2013-06-18 18:31:00,
2013-06-18 13:32:00,82.7,60.4,29.91,NNE,24,4.0,7.0,47,0.00,,,0.00,1039,Wunderground v.1.15,2013-06-18 18:32:00,
2013-06-18 13:33:00,82.5,60.2,29.91,NNE,33,2.0,7.0,47,0.00,,,0.00,1046,Wunderground v.1.15,2013-06-18 18:33:00,
2013-06-18 13:35:00,82.6,60.9,29.91,NNW,348,1.0,7.0,48,0.00,,,0.00,1049,Wunderground v.1.15,2013-06-18 18:35:00,
2013-06-18 13:36:00,82.6,61.5,29.91,WNW,295,3.0,7.0,49,0.00,,,0.00,1049,Wunderground v.1.15,2013-06-18 18:36:00,
2013-06-18 13:38:00,82.0,57.9,29.91,NW,309,4.0,7.0,44,0.00,,,0.00,139,Wunderground v.1.15,2013-06-18 18:38:00,
2013-06-18 13:40:00,81.2,60.8,29.91,NW,323,2.0,3.0,50,0.00,,,0.00,1032,Wunderground v.1.15,2013-06-18 18:40:00,
2013-06-18 13:41:00,81.6,63.3,29.91,NE,34,7.0,7.0,54,0.00,,,0.00,1032,Wunderground v.1.15,2013-06-18 18:41:00,
2013-06-18 13:43:00,81.9,59.1,29.91,NW,319,4.0,7.0,46,0.00,,,0.00,1035,Wunderground v.1.15,2013-06-18 18:43:00,
2013-06-18 13:44:00,82.1,60.5,29.91,North,11,4.0,7.0,48,0.00,,,0.00,1035,Wunderground v.1.15,2013-06-18 18:44:00,
2013-06-18 13:46:00,82.5,62.0,29.91,NNE,15,4.0,7.0,50,0.00,,,0.00,1063,Wunderground v.1.15,2013-06-18 18:46:00,
2013-06-18 13:47:00,82.7,57.9,29.91,North,5,4.0,7.0,43,0.00,,,0.00,1099,Wunderground v.1.15,2013-06-18 18:47:00,
2013-06-18 13:48:00,82.6,58.5,29.91,NW,315,7.0,7.0,44,0.00,,,0.00,599,Wunderground v.1.15,2013-06-18 18:48:00,
2013-06-18 13:49:00,82.4,58.3,29.91,NNE,26,4.0,7.0,44,0.00,,,0.00,599,Wunderground v.1.15,2013-06-18 18:49:00,
2013-06-18 13:52:00,81.5,58.7,29.91,NNE,15,3.0,4.0,46,0.00,,,0.00,599,Wunderground v.1.15,2013-06-18 18:52:00,
2013-06-18 13:53:00,81.3,57.3,29.91,NE,55,0.0,4.0,44,0.00,,,0.00,599,Wunderground v.1.15,2013-06-18 18:53:00,
2013-06-18 13:54:00,80.9,57.6,29.91,NE,55,0.0,4.0,45,0.00,,,0.00,599,Wunderground v.1.15,2013-06-18 18:54:00,
2013-06-18 13:55:00,80.6,59.1,29.91,NNW,337,2.0,4.0,48,0.00,,,0.00,1092,Wunderground v.1.15,2013-06-18 18:55:00,
2013-06-18 13:58:00,81.5,58.1,29.91,NW,310,11.0,12.0,45,0.00,,,0.00,1118,Wunderground v.1.15,2013-06-18 18:58:00,
2013-06-18 13:59:00,82.1,58.7,29.91,WNW,300,8.0,12.0,45,0.00,,,0.00,1114,Wunderground v.1.15,2013-06-18 18:59:00,
2013-06-18 14:00:00,82.2,59.4,29.91,NW,304,10.0,10.0,46,0.00,,,0.00,1106,Wunderground v.1.15,2013-06-18 19:00:00,
2013-06-18 14:05:00,83.0,59.5,29.91,NW,318,8.0,10.0,45,0.00,,,0.00,1092,Wunderground v.1.15,2013-06-18 19:05:00,
2013-06-18 14:08:00,82.6,57.2,29.90,WSW,251,3.0,10.0,42,0.00,,,0.00,1092,Wunderground v.1.15,2013-06-18 19:08:00,
2013-06-18 14:11:00,82.1,58.0,29.90,NNE,21,2.0,6.0,44,0.00,,,0.00,1092,Wunderground v.1.15,2013-06-18 19:11:00,
2013-06-18 14:13:00,82.3,58.8,29.90,North,5,3.0,6.0,45,0.00,,,0.00,1037,Wunderground v.1.15,2013-06-18 19:13:00,
2013-06-18 14:14:00,82.3,58.2,29.90,WNW,298,6.0,6.0,44,0.00,,,0.00,1041,Wunderground v.1.15,2013-06-18 19:14:00,
2013-06-18 14:17:00,82.8,58.7,29.90,WNW,282,5.0,8.0,44,0.00,,,0.00,1035,Wunderground v.1.15,2013-06-18 19:17:00,
2013-06-18 14:18:00,82.6,57.8,29.90,NNW,327,3.0,8.0,43,0.00,,,0.00,1056,Wunderground v.1.15,2013-06-18 19:18:00,
2013-06-18 14:20:00,82.7,57.3,29.90,WNW,293,6.0,8.0,42,0.00,,,0.00,1069,Wunderground v.1.15,2013-06-18 19:20:00,
2013-06-18 14:22:00,82.9,59.4,29.90,NNE,15,6.0,11.0,45,0.00,,,0.00,1081,Wunderground v.1.15,2013-06-18 19:22:00,
2013-06-18 14:23:00,82.9,57.5,29.90,NE,36,3.0,11.0,42,0.00,,,0.00,1081,Wunderground v.1.15,2013-06-18 19:23:00,
2013-06-18 14:25:00,82.7,58.6,29.90,NNE,30,3.0,11.0,44,0.00,,,0.00,1081,Wunderground v.1.15,2013-06-18 19:25:00,
2013-06-18 14:28:00,83.0,60.1,29.90,NW,325,4.0,11.0,46,0.00,,,0.00,1074,Wunderground v.1.15,2013-06-18 19:28:00,
2013-06-18 14:30:00,83.1,59.6,29.90,NW,310,8.0,9.0,45,0.00,,,0.00,1109,Wunderground v.1.15,2013-06-18 19:30:00,
2013-06-18 14:31:00,83.3,57.1,29.90,NW,323,10.0,10.0,41,0.00,,,0.00,1114,Wunderground v.1.15,2013-06-18 19:31:00,
2013-06-18 14:33:00,83.3,59.1,29.90,NNW,331,5.0,11.0,44,0.00,,,0.00,1083,Wunderground v.1.15,2013-06-18 19:33:00,
2013-06-18 14:34:00,83.2,60.3,29.90,NNW,328,2.0,11.0,46,0.00,,,0.00,1056,Wunderground v.1.15,2013-06-18 19:34:00,
2013-06-18 14:36:00,82.4,58.9,29.90,North,5,3.0,11.0,45,0.00,,,0.00,302,Wunderground v.1.15,2013-06-18 19:36:00,
2013-06-18 14:37:00,82.0,57.9,29.90,NNE,15,2.0,11.0,44,0.00,,,0.00,302,Wunderground v.1.15,2013-06-18 19:37:00,
2013-06-18 14:38:00,82.0,59.8,29.90,NW,325,0.0,11.0,47,0.00,,,0.00,302,Wunderground v.1.15,2013-06-18 19:38:00,
2013-06-18 14:39:00,81.9,58.5,29.90,NNW,327,1.0,11.0,45,0.00,,,0.00,302,Wunderground v.1.15,2013-06-18 19:39:00,
2013-06-18 14:40:00,81.7,58.3,29.90,North,355,2.0,5.0,45,0.00,,,0.00,302,Wunderground v.1.15,2013-06-18 19:40:00,
2013-06-18 14:41:00,81.9,59.7,29.90,NW,313,4.0,5.0,47,0.00,,,0.00,302,Wunderground v.1.15,2013-06-18 19:41:00,
2013-06-18 14:43:00,81.7,58.9,29.90,NNE,22,1.0,5.0,46,0.00,,,0.00,186,Wunderground v.1.15,2013-06-18 19:43:00,
2013-06-18 14:45:00,80.8,57.5,29.90,North,355,1.0,5.0,45,0.00,,,0.00,202,Wunderground v.1.15,2013-06-18 19:45:00,
2013-06-18 14:46:00,80.7,57.4,29.90,North,355,0.0,5.0,45,0.00,,,0.00,202,Wunderground v.1.15,2013-06-18 19:46:00,
2013-06-18 14:50:00,81.0,60.0,29.90,NNE,15,2.0,4.0,49,0.00,,,0.00,1014,Wunderground v.1.15,2013-06-18 19:50:00,
2013-06-18 14:51:00,81.1,60.1,29.90,NNE,13,2.0,4.0,49,0.00,,,0.00,1014,Wunderground v.1.15,2013-06-18 19:51:00,
2013-06-18 14:52:00,81.2,59.6,29.90,NNE,16,3.0,4.0,48,0.00,,,0.00,1014,Wunderground v.1.15,2013-06-18 19:52:00,
2013-06-18 14:56:00,81.7,60.7,29.90,North,355,0.0,4.0,49,0.00,,,0.00,1014,Wunderground v.1.15,2013-06-18 19:56:00,
2013-06-18 14:58:00,81.6,60.6,29.90,North,360,0.0,4.0,49,0.00,,,0.00,1014,Wunderground v.1.15,2013-06-18 19:58:00,
2013-06-18 15:00:00,81.6,61.2,29.90,NNE,20,3.0,3.0,50,0.00,,,0.00,991,Wunderground v.1.15,2013-06-18 20:00:00,
2013-06-18 15:01:00,82.2,60.0,29.90,NNE,24,3.0,4.0,47,0.00,,,0.00,976,Wunderground v.1.15,2013-06-18 20:01:00,
2013-06-18 15:03:00,82.5,58.4,29.90,NW,309,3.0,4.0,44,0.00,,,0.00,972,Wunderground v.1.15,2013-06-18 20:03:00,
2013-06-18 15:04:00,82.5,58.4,29.90,NNW,330,1.0,4.0,44,0.00,,,0.00,976,Wunderground v.1.15,2013-06-18 20:04:00,
2013-06-18 15:06:00,82.2,57.5,29.90,NNE,13,3.0,4.0,43,0.00,,,0.00,958,Wunderground v.1.15,2013-06-18 20:06:00,
2013-06-18 15:07:00,82.1,57.4,29.90,NNE,13,1.0,4.0,43,0.00,,,0.00,954,Wunderground v.1.15,2013-06-18 20:07:00,
2013-06-18 15:08:00,82.3,58.8,29.90,NW,318,7.0,7.0,45,0.00,,,0.00,942,Wunderground v.1.15,2013-06-18 20:08:00,
2013-06-18 15:09:00,82.4,58.9,29.90,NNW,333,7.0,7.0,45,0.00,,,0.00,942,Wunderground v.1.15,2013-06-18 20:09:00,
2013-06-18 15:11:00,82.9,57.5,29.90,NW,306,7.0,7.0,42,0.00,,,0.00,956,Wunderground v.1.15,2013-06-18 20:11:00,
2013-06-18 15:12:00,83.0,56.9,29.90,NNE,28,2.0,7.0,41,0.00,,,0.00,960,Wunderground v.1.15,2013-06-18 20:12:00,
2013-06-18 15:14:00,83.0,59.5,29.90,NW,324,2.0,7.0,45,0.00,,,0.00,958,Wunderground v.1.15,2013-06-18 20:14:00,
2013-06-18 15:17:00,83.0,57.5,29.90,NNE,16,4.0,7.0,42,0.00,,,0.00,940,Wunderground v.1.15,2013-06-18 20:17:00,
2013-06-18 15:18:00,82.9,56.1,29.90,NNE,24,0.0,7.0,40,0.00,,,0.00,933,Wunderground v.1.15,2013-06-18 20:18:00,
2013-06-18 15:19:00,82.8,58.0,29.90,NW,316,6.0,7.0,43,0.00,,,0.00,925,Wunderground v.1.15,2013-06-18 20:19:00,
2013-06-18 15:20:00,83.0,60.7,29.90,NNW,342,7.0,7.0,47,0.00,,,0.00,912,Wunderground v.1.15,2013-06-18 20:20:00,
2013-06-18 15:22:00,83.3,59.1,29.90,NNW,331,2.0,7.0,44,0.00,,,0.00,900,Wunderground v.1.15,2013-06-18 20:22:00,
2013-06-18 15:24:00,83.3,59.7,29.89,NNE,15,0.0,7.0,45,0.00,,,0.00,900,Wunderground v.1.15,2013-06-18 20:24:00,
2013-06-18 15:25:00,83.5,59.3,29.89,NNW,340,2.0,7.0,44,0.00,,,0.00,900,Wunderground v.1.15,2013-06-18 20:25:00,
2013-06-18 15:26:00,83.4,58.6,29.89,NNW,330,0.0,7.0,43,0.00,,,0.00,904,Wunderground v.1.15,2013-06-18 20:26:00,
2013-06-18 15:30:00,83.5,58.6,29.89,North,355,2.0,2.0,43,0.00,,,0.00,912,Wunderground v.1.15,2013-06-18 20:30:00,
2013-06-18 15:31:00,83.4,58.6,29.89,NNE,30,7.0,8.0,43,0.00,,,0.00,914,Wunderground v.1.15,2013-06-18 20:31:00,
2013-06-18 15:33:00,83.3,60.4,29.89,North,5,2.0,8.0,46,0.00,,,0.00,905,Wunderground v.1.15,2013-06-18 20:33:00,
2013-06-18 15:35:00,82.2,56.8,29.89,North,360,2.0,8.0,42,0.00,,,0.00,105,Wunderground v.1.15,2013-06-18 20:35:00,
2013-06-18 15:36:00,82.0,57.3,29.89,North,5,0.0,8.0,43,0.00,,,0.00,132,Wunderground v.1.15,2013-06-18 20:36:00,
2013-06-18 15:37:00,81.3,57.9,29.89,NNE,17,1.0,8.0,45,0.00,,,0.00,132,Wunderground v.1.15,2013-06-18 20:37:00,
2013-06-18 15:38:00,81.1,57.1,29.89,NNE,17,2.0,8.0,44,0.00,,,0.00,171,Wunderground v.1.15,2013-06-18 20:38:00,
2013-06-18 15:39:00,81.1,57.1,29.89,NNE,21,1.0,8.0,44,0.00,,,0.00,171,Wunderground v.1.15,2013-06-18 20:39:00,
2013-06-18 15:40:00,81.2,60.2,29.89,NNE,19,0.0,2.0,49,0.00,,,0.00,889,Wunderground v.1.15,2013-06-18 20:40:00,
2013-06-18 15:42:00,81.6,59.4,29.89,NNE,26,2.0,3.0,47,0.00,,,0.00,877,Wunderground v.1.15,2013-06-18 20:42:00,
2013-06-18 15:43:00,82.0,57.9,29.89,North,9,1.0,5.0,44,0.00,,,0.00,872,Wunderground v.1.15,2013-06-18 20:43:00,
2013-06-18 15:45:00,82.6,59.7,29.89,NNE,19,2.0,5.0,46,0.00,,,0.00,861,Wunderground v.1.15,2013-06-18 20:45:00,
2013-06-18 15:47:00,82.9,58.7,29.89,NNE,14,2.0,5.0,44,0.00,,,0.00,854,Wunderground v.1.15,2013-06-18 20:47:00,
2013-06-18 15:48:00,83.0,58.8,29.89,NNE,22,2.0,5.0,44,0.00,,,0.00,854,Wunderground v.1.15,2013-06-18 20:48:00,
2013-06-18 15:50:00,82.7,59.8,29.89,NE,44,2.0,4.0,46,0.00,,,0.00,851,Wunderground v.1.15,2013-06-18 20:50:00,
2013-06-18 15:52:00,82.9,60.0,29.89,NNW,329,0.0,6.0,46,0.00,,,0.00,846,Wunderground v.1.15,2013-06-18 20:52:00,
2013-06-18 15:53:00,83.2,58.4,29.89,NNW,339,2.0,6.0,43,0.00,,,0.00,844,Wunderground v.1.15,2013-06-18 20:53:00,
2013-06-18 15:54:00,83.2,58.4,29.89,NNE,30,1.0,6.0,43,0.00,,,0.00,842,Wunderground v.1.15,2013-06-18 20:54:00,
2013-06-18 15:57:00,83.3,61.0,29.89,NNW,346,0.0,6.0,47,0.00,,,0.00,835,Wunderground v.1.15,2013-06-18 20:57:00,
2013-06-18 15:58:00,83.2,59.6,29.89,NW,309,4.0,6.0,45,0.00,,,0.00,830,Wunderground v.1.15,2013-06-18 20:58:00,
2013-06-18 15:59:00,83.3,59.7,29.89,NW,311,4.0,6.0,45,0.00,,,0.00,830,Wunderground v.1.15,2013-06-18 20:59:00,
2013-06-18 16:00:00,83.3,58.5,29.89,NNE,15,2.0,2.0,43,0.00,,,0.00,838,Wunderground v.1.15,2013-06-18 21:00:00,
2013-06-18 16:04:00,83.4,55.8,29.89,WNW,294,7.0,10.0,39,0.00,,,0.00,819,Wunderground v.1.15,2013-06-18 21:04:00,
2013-06-18 16:05:00,83.1,59.6,29.89,NW,323,5.0,10.0,45,0.00,,,0.00,816,Wunderground v.1.15,2013-06-18 21:05:00,
2013-06-18 16:07:00,82.9,55.4,29.89,NW,311,2.0,10.0,39,0.00,,,0.00,816,Wunderground v.1.15,2013-06-18 21:07:00,
2013-06-18 16:09:00,82.7,57.9,29.89,NW,308,0.0,10.0,43,0.00,,,0.00,812,Wunderground v.1.15,2013-06-18 21:09:00,
2013-06-18 16:10:00,82.6,55.8,29.89,NW,308,0.0,10.0,40,0.00,,,0.00,821,Wunderground v.1.15,2013-06-18 21:10:00,
2013-06-18 16:11:00,82.5,59.0,29.89,NNW,343,3.0,6.0,45,0.00,,,0.00,824,Wunderground v.1.15,2013-06-18 21:11:00,
2013-06-18 16:12:00,82.7,58.6,29.89,NNE,15,3.0,6.0,44,0.00,,,0.00,803,Wunderground v.1.15,2013-06-18 21:12:00,
2013-06-18 16:15:00,83.1,58.9,29.89,NE,44,3.0,6.0,44,0.00,,,0.00,791,Wunderground v.1.15,2013-06-18 21:15:00,
2013-06-18 16:16:00,83.1,58.3,29.89,NE,48,4.0,6.0,43,0.00,,,0.00,784,Wunderground v.1.15,2013-06-18 21:16:00,
2013-06-18 16:17:00,83.0,58.2,29.89,NE,42,2.0,6.0,43,0.00,,,0.00,786,Wunderground v.1.15,2013-06-18 21:17:00,
2013-06-18 16:18:00,83.0,57.5,29.88,NE,38,0.0,6.0,42,0.00,,,0.00,773,Wunderground v.1.15,2013-06-18 21:18:00,
2013-06-18 16:20:00,83.2,58.4,29.89,North,360,1.0,2.0,43,0.00,,,0.00,779,Wunderground v.1.15,2013-06-18 21:20:00,
2013-06-18 16:22:00,83.2,58.4,29.88,NW,313,5.0,5.0,43,0.00,,,0.00,773,Wunderground v.1.15,2013-06-18 21:22:00,
2013-06-18 16:23:00,83.2,57.1,29.88,NW,314,2.0,5.0,41,0.00,,,0.00,772,Wunderground v.1.15,2013-06-18 21:23:00,
2013-06-18 16:26:00,83.6,60.6,29.88,North,5,1.0,5.0,46,0.00,,,0.00,763,Wunderground v.1.15,2013-06-18 21:26:00,
2013-06-18 16:27:00,83.7,60.1,29.88,North,5,1.0,5.0,45,0.00,,,0.00,754,Wunderground v.1.15,2013-06-18 21:27:00,
2013-06-18 16:28:00,83.8,60.2,29.88,NNE,19,4.0,5.0,45,0.00,,,0.00,754,Wunderground v.1.15,2013-06-18 21:28:00,
2013-06-18 16:29:00,83.8,56.9,29.88,NNE,20,3.0,5.0,40,0.00,,,0.00,759,Wunderground v.1.15,2013-06-18 21:29:00,
2013-06-18 16:32:00,83.3,55.8,29.88,NNE,23,2.0,5.0,39,0.00,,,0.00,737,Wunderground v.1.15,2013-06-18 21:32:00,
2013-06-18 16:33:00,83.3,57.1,29.88,NNE,23,2.0,5.0,41,0.00,,,0.00,737,Wunderground v.1.15,2013-06-18 21:33:00,
2013-06-18 16:34:00,83.1,58.3,29.88,NNE,23,3.0,5.0,43,0.00,,,0.00,737,Wunderground v.1.15,2013-06-18 21:34:00,
2013-06-18 16:35:00,83.1,58.3,29.88,NNW,331,2.0,5.0,43,0.00,,,0.00,738,Wunderground v.1.15,2013-06-18 21:35:00,
2013-06-18 16:38:00,82.9,56.8,29.88,NNE,15,0.0,5.0,41,0.00,,,0.00,724,Wunderground v.1.15,2013-06-18 21:38:00,
2013-06-18 16:39:00,83.0,60.1,29.88,North,5,2.0,5.0,46,0.00,,,0.00,721,Wunderground v.1.15,2013-06-18 21:39:00,
2013-06-18 16:40:00,83.1,58.9,29.88,NNE,18,2.0,2.0,44,0.00,,,0.00,715,Wunderground v.1.15,2013-06-18 21:40:00,
2013-06-18 16:41:00,83.2,59.0,29.88,NNW,341,2.0,4.0,44,0.00,,,0.00,708,Wunderground v.1.15,2013-06-18 21:41:00,
2013-06-18 16:43:00,83.3,56.5,29.88,NE,43,4.0,5.0,40,0.00,,,0.00,703,Wunderground v.1.15,2013-06-18 21:43:00,
2013-06-18 16:45:00,83.3,58.5,29.88,North,5,4.0,5.0,43,0.00,,,0.00,701,Wunderground v.1.15,2013-06-18 21:45:00,
2013-06-18 16:46:00,83.4,58.6,29.88,NNE,14,3.0,5.0,43,0.00,,,0.00,701,Wunderground v.1.15,2013-06-18 21:46:00,
2013-06-18 16:47:00,83.3,57.8,29.88,North,10,2.0,5.0,42,0.00,,,0.00,698,Wunderground v.1.15,2013-06-18 21:47:00,
2013-06-18 16:48:00,83.3,55.8,29.88,North,10,3.0,5.0,39,0.00,,,0.00,701,Wunderground v.1.15,2013-06-18 21:48:00,
2013-06-18 16:50:00,83.3,57.1,29.88,NE,50,2.0,3.0,41,0.00,,,0.00,700,Wunderground v.1.15,2013-06-18 21:50:00,
2013-06-18 16:51:00,83.1,57.6,29.88,NE,44,2.0,3.0,42,0.00,,,0.00,698,Wunderground v.1.15,2013-06-18 21:51:00,
2013-06-18 16:53:00,83.3,59.7,29.88,ENE,68,2.0,3.0,45,0.00,,,0.00,691,Wunderground v.1.15,2013-06-18 21:53:00,
2013-06-18 16:54:00,83.4,59.8,29.88,NE,51,3.0,3.0,45,0.00,,,0.00,691,Wunderground v.1.15,2013-06-18 21:54:00,
2013-06-18 16:56:00,83.3,59.1,29.87,NE,42,2.0,4.0,44,0.00,,,0.00,673,Wunderground v.1.15,2013-06-18 21:56:00,
2013-06-18 16:58:00,83.3,57.1,29.88,NE,34,3.0,4.0,41,0.00,,,0.00,664,Wunderground v.1.15,2013-06-18 21:58:00,
2013-06-18 16:59:00,83.3,55.8,29.87,NE,34,1.0,4.0,39,0.00,,,0.00,659,Wunderground v.1.15,2013-06-18 21:59:00,
2013-06-18 17:03:00,83.2,57.7,29.87,NE,34,0.0,2.0,42,0.00,,,0.00,649,Wunderground v.1.15,2013-06-18 22:03:00,
2013-06-18 17:04:00,83.2,58.4,29.87,WNW,295,2.0,6.0,43,0.00,,,0.00,645,Wunderground v.1.15,2013-06-18 22:04:00,
2013-06-18 17:08:00,83.2,57.1,29.87,North,11,2.0,6.0,41,0.00,,,0.00,638,Wunderground v.1.15,2013-06-18 22:08:00,
2013-06-18 17:09:00,83.3,59.7,29.87,NNE,25,1.0,6.0,45,0.00,,,0.00,633,Wunderground v.1.15,2013-06-18 22:09:00,
2013-06-18 17:10:00,83.5,58.6,29.87,NNE,25,3.0,3.0,43,0.00,,,0.00,645,Wunderground v.1.15,2013-06-18 22:10:00,
2013-06-18 17:12:00,83.2,57.7,29.87,NNE,22,2.0,4.0,42,0.00,,,0.00,645,Wunderground v.1.15,2013-06-18 22:12:00,
2013-06-18 17:15:00,82.8,56.7,29.87,North,355,1.0,4.0,41,0.00,,,0.00,615,Wunderground v.1.15,2013-06-18 22:15:00,
2013-06-18 17:16:00,82.9,59.4,29.87,NNE,30,3.0,4.0,45,0.00,,,0.00,606,Wunderground v.1.15,2013-06-18 22:16:00,
2013-06-18 17:18:00,83.0,56.2,29.87,NNE,19,3.0,4.0,40,0.00,,,0.00,599,Wunderground v.1.15,2013-06-18 22:18:00,
2013-06-18 17:20:00,83.0,56.2,29.87,North,5,3.0,4.0,40,0.00,,,0.00,606,Wunderground v.1.15,2013-06-18 22:20:00,
2013-06-18 17:21:00,83.0,56.2,29.87,North,351,4.0,4.0,40,0.00,,,0.00,612,Wunderground v.1.15,2013-06-18 22:21:00,
2013-06-18 17:22:00,83.0,56.2,29.87,North,360,2.0,5.0,40,0.00,,,0.00,606,Wunderground v.1.15,2013-06-18 22:22:00,
2013-06-18 17:24:00,82.9,57.5,29.87,NE,53,3.0,5.0,42,0.00,,,0.00,610,Wunderground v.1.15,2013-06-18 22:24:00,
2013-06-18 17:26:00,82.9,57.5,29.87,NE,51,1.0,5.0,42,0.00,,,0.00,601,Wunderground v.1.15,2013-06-18 22:26:00,
2013-06-18 17:28:00,82.9,58.1,29.87,NE,50,1.0,5.0,43,0.00,,,0.00,596,Wunderground v.1.15,2013-06-18 22:28:00,
2013-06-18 17:30:00,82.7,59.2,29.87,ENE,61,0.0,2.0,45,0.00,,,0.00,585,Wunderground v.1.15,2013-06-18 22:30:00,
2013-06-18 17:31:00,82.5,59.0,29.87,North,5,3.0,3.0,45,0.00,,,0.00,585,Wunderground v.1.15,2013-06-18 22:31:00,
2013-06-18 17:33:00,82.5,56.4,29.87,NNE,32,1.0,3.0,41,0.00,,,0.00,378,Wunderground v.1.15,2013-06-18 22:33:00,
2013-06-18 17:36:00,82.3,57.6,29.87,NE,55,3.0,5.0,43,0.00,,,0.00,555,Wunderground v.1.15,2013-06-18 22:36:00,
2013-06-18 17:39:00,82.4,57.7,29.87,NE,38,2.0,5.0,43,0.00,,,0.00,538,Wunderground v.1.15,2013-06-18 22:39:00,
2013-06-18 17:40:00,82.4,56.3,29.87,NE,53,3.0,5.0,41,0.00,,,0.00,536,Wunderground v.1.15,2013-06-18 22:40:00,
2013-06-18 17:42:00,82.5,57.1,29.87,NE,49,3.0,5.0,42,0.00,,,0.00,533,Wunderground v.1.15,2013-06-18 22:42:00,
2013-06-18 17:44:00,82.7,57.3,29.87,North,9,3.0,5.0,42,0.00,,,0.00,520,Wunderground v.1.15,2013-06-18 22:44:00,
2013-06-18 17:45:00,82.9,56.8,29.87,NNE,32,3.0,5.0,41,0.00,,,0.00,513,Wunderground v.1.15,2013-06-18 22:45:00,
2013-06-18 17:47:00,82.9,56.8,29.87,NE,38,0.0,5.0,41,0.00,,,0.00,513,Wunderground v.1.15,2013-06-18 22:47:00,
2013-06-18 17:50:00,82.6,57.2,29.87,NNE,29,2.0,3.0,42,0.00,,,0.00,504,Wunderground v.1.15,2013-06-18 22:50:00,
2013-06-18 17:52:00,82.8,57.4,29.87,NE,51,2.0,3.0,42,0.00,,,0.00,492,Wunderground v.1.15,2013-06-18 22:52:00,
2013-06-18 17:53:00,82.8,56.7,29.87,NE,56,1.0,3.0,41,0.00,,,0.00,492,Wunderground v.1.15,2013-06-18 22:53:00,
2013-06-18 17:56:00,82.6,57.2,29.87,NNE,20,3.0,6.0,42,0.00,,,0.00,482,Wunderground v.1.15,2013-06-18 22:56:00,
2013-06-18 17:58:00,82.7,56.6,29.87,NNE,18,2.0,6.0,41,0.00,,,0.00,475,Wunderground v.1.15,2013-06-18 22:58:00,
2013-06-18 18:00:00,82.8,58.0,29.87,NW,319,4.0,4.0,43,0.00,,,0.00,475,Wunderground v.1.15,2013-06-18 23:00:00,
2013-06-18 18:02:00,82.8,58.0,29.87,NNW,337,1.0,6.0,43,0.00,,,0.00,455,Wunderground v.1.15,2013-06-18 23:02:00,
2013-06-18 18:03:00,82.7,56.6,29.87,NW,315,6.0,6.0,41,0.00,,,0.00,457,Wunderground v.1.15,2013-06-18 23:03:00,
2013-06-18 18:04:00,82.6,55.8,29.87,NW,312,3.0,6.0,40,0.00,,,0.00,76,Wunderground v.1.15,2013-06-18 23:04:00,
2013-06-18 18:06:00,82.4,57.0,29.87,NW,315,3.0,6.0,42,0.00,,,0.00,84,Wunderground v.1.15,2013-06-18 23:06:00,
2013-06-18 18:07:00,81.9,55.9,29.87,NNW,330,1.0,6.0,41,0.00,,,0.00,142,Wunderground v.1.15,2013-06-18 23:07:00,
2013-06-18 18:09:00,81.8,57.1,29.87,NNE,13,2.0,6.0,43,0.00,,,0.00,454,Wunderground v.1.15,2013-06-18 23:09:00,
2013-06-18 18:11:00,81.7,55.0,29.86,North,11,0.0,3.0,40,0.00,,,0.00,454,Wunderground v.1.15,2013-06-18 23:11:00,
2013-06-18 18:12:00,81.6,56.3,29.86,North,11,2.0,3.0,42,0.00,,,0.00,79,Wunderground v.1.15,2013-06-18 23:12:00,
2013-06-18 18:14:00,81.2,55.9,29.87,North,5,0.0,3.0,42,0.00,,,0.00,86,Wunderground v.1.15,2013-06-18 23:14:00,
2013-06-18 18:17:00,81.4,56.8,29.86,North,5,0.0,3.0,43,0.00,,,0.00,432,Wunderground v.1.15,2013-06-18 23:17:00,
2013-06-18 18:18:00,81.7,57.7,29.86,North,5,0.0,3.0,44,0.00,,,0.00,425,Wunderground v.1.15,2013-06-18 23:18:00,
2013-06-18 18:20:00,82.3,57.6,29.86,NW,326,1.0,1.0,43,0.00,,,0.00,418,Wunderground v.1.15,2013-06-18 23:20:00,
2013-06-18 18:22:00,82.5,57.7,29.86,NE,46,1.0,1.0,43,0.00,,,0.00,413,Wunderground v.1.15,2013-06-18 23:22:00,
2013-06-18 18:24:00,82.5,57.7,29.86,NNE,22,1.0,3.0,43,0.00,,,0.00,410,Wunderground v.1.15,2013-06-18 23:24:00,
2013-06-18 18:25:00,82.5,57.7,29.86,NNW,331,3.0,3.0,43,0.00,,,0.00,406,Wunderground v.1.15,2013-06-18 23:25:00,
2013-06-18 18:28:00,82.5,56.4,29.86,NNW,343,2.0,3.0,41,0.00,,,0.00,397,Wunderground v.1.15,2013-06-18 23:28:00,
2013-06-18 18:29:00,82.5,56.4,29.86,North,5,3.0,3.0,41,0.00,,,0.00,397,Wunderground v.1.15,2013-06-18 23:29:00,
2013-06-18 18:30:00,82.5,56.4,29.86,NNE,13,3.0,3.0,41,0.00,,,0.00,396,Wunderground v.1.15,2013-06-18 23:30:00,
2013-06-18 18:31:00,82.5,56.4,29.86,NNE,26,4.0,4.0,41,0.00,,,0.00,392,Wunderground v.1.15,2013-06-18 23:31:00,
2013-06-18 18:35:00,82.4,58.3,29.86,North,5,3.0,4.0,44,0.00,,,0.00,380,Wunderground v.1.15,2013-06-18 23:35:00,
2013-06-18 18:37:00,82.4,57.0,29.86,NNE,18,4.0,4.0,42,0.00,,,0.00,376,Wunderground v.1.15,2013-06-18 23:37:00,
2013-06-18 18:39:00,82.4,57.0,29.86,NNE,20,3.0,4.0,42,0.00,,,0.00,366,Wunderground v.1.15,2013-06-18 23:39:00,
2013-06-18 18:40:00,82.3,57.6,29.86,NNW,340,3.0,3.0,43,0.00,,,0.00,367,Wunderground v.1.15,2013-06-18 23:40:00,
2013-06-18 18:44:00,82.3,56.9,29.86,NW,311,5.0,5.0,42,0.00,,,0.00,362,Wunderground v.1.15,2013-06-18 23:44:00,
2013-06-18 18:45:00,82.4,55.7,29.86,WNW,292,5.0,7.0,40,0.00,,,0.00,359,Wunderground v.1.15,2013-06-18 23:45:00,
2013-06-18 18:46:00,82.4,55.7,29.86,WNW,290,5.0,7.0,40,0.00,,,0.00,359,Wunderground v.1.15,2013-06-18 23:46:00,
2013-06-18 18:47:00,82.5,55.7,29.86,WNW,299,5.0,7.0,40,0.00,,,0.00,359,Wunderground v.1.15,2013-06-18 23:47:00,
2013-06-18 18:50:00,82.5,55.0,29.86,NW,315,4.0,4.0,39,0.00,,,0.00,357,Wunderground v.1.15,2013-06-18 23:50:00,
2013-06-18 18:51:00,82.6,57.8,29.86,North,360,1.0,4.0,43,0.00,,,0.00,353,Wunderground v.1.15,2013-06-18 23:51:00,
2013-06-18 18:53:00,82.5,57.7,29.86,NW,313,3.0,4.0,43,0.00,,,0.00,348,Wunderground v.1.15,2013-06-18 23:53:00,
2013-06-18 18:54:00,82.5,57.1,29.86,WNW,302,5.0,5.0,42,0.00,,,0.00,339,Wunderground v.1.15,2013-06-18 23:54:00,
2013-06-18 18:57:00,82.7,56.6,29.86,WNW,290,6.0,7.0,41,0.00,,,0.00,330,Wunderground v.1.15,2013-06-18 23:57:00,
2013-06-18 18:58:00,82.8,58.0,29.86,North,9,2.0,8.0,43,0.00,,,0.00,322,Wunderground v.1.15,2013-06-18 23:58:00,
2013-06-18 18:59:00,82.8,58.0,29.86,North,5,0.0,8.0,43,0.00,,,0.00,322,Wunderground v.1.15,2013-06-18 23:59:00,
2013-06-18 19:00:00,82.7,57.3,29.86,NNE,24,1.0,4.0,42,0.00,,,0.00,316,Wunderground v.1.15,2013-06-19 00:00:00,
2013-06-18 19:04:00,82.1,58.0,29.86,NE,42,0.0,4.0,44,0.00,,,0.00,295,Wunderground v.1.15,2013-06-19 00:04:00,
2013-06-18 19:05:00,82.1,58.7,29.87,NE,42,0.0,4.0,45,0.00,,,0.00,294,Wunderground v.1.15,2013-06-19 00:05:00,
2013-06-18 19:06:00,82.0,59.2,29.87,NE,42,0.0,4.0,46,0.00,,,0.00,290,Wunderground v.1.15,2013-06-19 00:06:00,
2013-06-18 19:09:00,81.4,57.4,29.87,ENE,66,2.0,4.0,44,0.00,,,0.00,278,Wunderground v.1.15,2013-06-19 00:09:00,
2013-06-18 19:10:00,81.4,57.4,29.87,ENE,66,1.0,1.0,44,0.00,,,0.00,278,Wunderground v.1.15,2013-06-19 00:10:00,
2013-06-18 19:11:00,81.3,57.3,29.87,ENE,66,1.0,1.0,44,0.00,,,0.00,278,Wunderground v.1.15,2013-06-19 00:11:00,
2013-06-18 19:15:00,81.5,57.5,29.87,NNE,13,2.0,2.0,44,0.00,,,0.00,278,Wunderground v.1.15,2013-06-19 00:15:00,
2013-06-18 19:16:00,81.6,58.2,29.87,NNE,13,1.0,2.0,45,0.00,,,0.00,278,Wunderground v.1.15,2013-06-19 00:16:00,
2013-06-18 19:17:00,81.6,57.6,29.87,NNE,13,2.0,3.0,44,0.00,,,0.00,272,Wunderground v.1.15,2013-06-19 00:17:00,
2013-06-18 19:19:00,81.6,56.9,29.87,NNE,20,2.0,3.0,43,0.00,,,0.00,258,Wunderground v.1.15,2013-06-19 00:19:00,
2013-06-18 19:21:00,81.7,58.3,29.87,NNE,15,2.0,3.0,45,0.00,,,0.00,250,Wunderground v.1.15,2013-06-19 00:21:00,
2013-06-18 19:23:00,81.7,58.3,29.87,NE,43,2.0,3.0,45,0.00,,,0.00,241,Wunderground v.1.15,2013-06-19 00:23:00,
2013-06-18 19:25:00,81.4,58.0,29.87,NE,52,0.0,3.0,45,0.00,,,0.00,221,Wunderground v.1.15,2013-06-19 00:25:00,
2013-06-18 19:27:00,81.0,58.3,29.87,ENE,63,2.0,3.0,46,0.00,,,0.00,213,Wunderground v.1.15,2013-06-19 00:27:00,
2013-06-18 19:28:00,80.7,59.2,29.87,ENE,63,1.0,3.0,48,0.00,,,0.00,202,Wunderground v.1.15,2013-06-19 00:28:00,
2013-06-18 19:30:00,80.4,58.9,29.87,ENE,57,2.0,3.0,48,0.00,,,0.00,195,Wunderground v.1.15,2013-06-19 00:30:00,
2013-06-18 19:31:00,80.3,58.8,29.87,ENE,66,2.0,3.0,48,0.00,,,0.00,195,Wunderground v.1.15,2013-06-19 00:31:00,
2013-06-18 19:33:00,80.2,58.1,29.87,East,90,2.0,3.0,47,0.00,,,0.00,185,Wunderground v.1.15,2013-06-19 00:33:00,
2013-06-18 19:35:00,80.1,58.0,29.87,ESE,107,2.0,3.0,47,0.00,,,0.00,176,Wunderground v.1.15,2013-06-19 00:35:00,
2013-06-18 19:36:00,80.1,58.6,29.87,East,101,2.0,3.0,48,0.00,,,0.00,176,Wunderground v.1.15,2013-06-19 00:36:00,
2013-06-18 19:38:00,79.8,59.5,29.87,East,82,3.0,3.0,50,0.00,,,0.00,153,Wunderground v.1.15,2013-06-19 00:38:00,
2013-06-18 19:41:00,79.6,58.8,29.87,East,82,2.0,3.0,49,0.00,,,0.00,146,Wunderground v.1.15,2013-06-19 00:41:00,
2013-06-18 19:42:00,79.5,58.7,29.87,East,82,0.0,3.0,49,0.00,,,0.00,141,Wunderground v.1.15,2013-06-19 00:42:00,
2013-06-18 19:47:00,78.9,58.7,29.87,East,88,1.0,5.0,50,0.00,,,0.00,128,Wunderground v.1.15,2013-06-19 00:47:00,
2013-06-18 19:50:00,78.9,58.7,29.87,East,84,0.0,1.0,50,0.00,,,0.00,125,Wunderground v.1.15,2013-06-19 00:50:00,
2013-06-18 19:52:00,78.9,59.2,29.87,ENE,73,1.0,1.0,51,0.00,,,0.00,120,Wunderground v.1.15,2013-06-19 00:52:00,
2013-06-18 19:53:00,78.9,59.2,29.87,East,85,0.0,2.0,51,0.00,,,0.00,118,Wunderground v.1.15,2013-06-19 00:53:00,
2013-06-18 19:54:00,78.9,59.2,29.87,East,85,0.0,2.0,51,0.00,,,0.00,116,Wunderground v.1.15,2013-06-19 00:54:00,
2013-06-18 19:56:00,78.7,59.6,29.87,East,83,0.0,2.0,52,0.00,,,0.00,113,Wunderground v.1.15,2013-06-19 00:56:00,
2013-06-18 19:58:00,78.6,59.5,29.87,East,83,0.0,2.0,52,0.00,,,0.00,111,Wunderground v.1.15,2013-06-19 00:58:00,
2013-06-18 19:59:00,78.5,59.4,29.87,East,85,1.0,2.0,52,0.00,,,0.00,109,Wunderground v.1.15,2013-06-19 00:59:00,
2013-06-18 20:02:00,78.2,60.2,29.87,East,85,0.0,0.0,54,0.00,,,0.00,100,Wunderground v.1.15,2013-06-19 01:02:00,
2013-06-18 20:04:00,78.1,60.1,29.87,East,85,0.0,0.0,54,0.00,,,0.00,91,Wunderground v.1.15,2013-06-19 01:04:00,
2013-06-18 20:08:00,77.9,59.9,29.87,East,85,0.0,0.0,54,0.00,,,0.00,72,Wunderground v.1.15,2013-06-19 01:08:00,
2013-06-18 20:09:00,77.8,59.3,29.87,East,85,0.0,0.0,53,0.00,,,0.00,65,Wunderground v.1.15,2013-06-19 01:09:00,
2013-06-18 20:10:00,77.8,60.3,29.87,East,85,0.0,0.0,55,0.00,,,0.00,65,Wunderground v.1.15,2013-06-19 01:10:00,
2013-06-18 20:12:00,77.7,59.7,29.87,East,85,0.0,0.0,54,0.00,,,0.00,58,Wunderground v.1.15,2013-06-19 01:12:00,
2013-06-18 20:13:00,77.6,59.6,29.87,East,85,0.0,0.0,54,0.00,,,0.00,56,Wunderground v.1.15,2013-06-19 01:13:00,
2013-06-18 20:14:00,77.6,59.6,29.87,East,85,0.0,0.0,54,0.00,,,0.00,54,Wunderground v.1.15,2013-06-19 01:14:00,
2013-06-18 20:15:00,77.5,60.1,29.87,East,85,0.0,0.0,55,0.00,,,0.00,54,Wunderground v.1.15,2013-06-19 01:15:00,
2013-06-18 20:16:00,77.4,60.0,29.87,East,85,0.0,0.0,55,0.00,,,0.00,47,Wunderground v.1.15,2013-06-19 01:16:00,
2013-06-18 20:19:00,77.0,60.1,29.87,East,85,0.0,0.0,56,0.00,,,0.00,42,Wunderground v.1.15,2013-06-19 01:19:00,
2013-06-18 20:20:00,77.0,59.6,29.87,East,85,0.0,0.0,55,0.00,,,0.00,42,Wunderground v.1.15,2013-06-19 01:20:00,
2013-06-18 20:23:00,77.0,59.6,29.87,East,85,0.0,1.0,55,0.00,,,0.00,35,Wunderground v.1.15,2013-06-19 01:23:00,
2013-06-18 20:25:00,76.9,59.5,29.87,East,85,0.0,1.0,55,0.00,,,0.00,33,Wunderground v.1.15,2013-06-19 01:25:00,
2013-06-18 20:26:00,76.9,59.5,29.88,ENE,76,0.0,1.0,55,0.00,,,0.00,30,Wunderground v.1.15,2013-06-19 01:26:00,
2013-06-18 20:27:00,76.9,60.0,29.88,ENE,76,0.0,1.0,56,0.00,,,0.00,30,Wunderground v.1.15,2013-06-19 01:27:00,
2013-06-18 20:28:00,76.7,59.8,29.88,ENE,76,0.0,1.0,56,0.00,,,0.00,25,Wunderground v.1.15,2013-06-19 01:28:00,
2013-06-18 20:31:00,76.6,59.7,29.87,ENE,60,0.0,0.0,56,0.00,,,0.00,21,Wunderground v.1.15,2013-06-19 01:31:00,
2013-06-18 20:32:00,76.5,59.6,29.87,ENE,74,1.0,1.0,56,0.00,,,0.00,19,Wunderground v.1.15,2013-06-19 01:32:00,
2013-06-18 20:34:00,76.4,59.5,29.88,ENE,74,0.0,1.0,56,0.00,,,0.00,18,Wunderground v.1.15,2013-06-19 01:34:00,
2013-06-18 20:37:00,76.2,59.4,29.87,ENE,74,0.0,1.0,56,0.00,,,0.00,16,Wunderground v.1.15,2013-06-19 01:37:00,
2013-06-18 20:38:00,76.2,59.9,29.87,ENE,74,0.0,1.0,57,0.00,,,0.00,16,Wunderground v.1.15,2013-06-19 01:38:00,
2013-06-18 20:39:00,76.2,59.9,29.88,ENE,74,0.0,1.0,57,0.00,,,0.00,14,Wunderground v.1.15,2013-06-19 01:39:00,
2013-06-18 20:40:00,76.1,59.8,29.87,ENE,74,0.0,0.0,57,0.00,,,0.00,14,Wunderground v.1.15,2013-06-19 01:40:00,
2013-06-18 20:44:00,75.7,59.9,29.88,ENE,74,0.0,0.0,58,0.00,,,0.00,11,Wunderground v.1.15,2013-06-19 01:44:00,
2013-06-18 20:45:00,75.6,59.8,29.88,ENE,74,0.0,0.0,58,0.00,,,0.00,11,Wunderground v.1.15,2013-06-19 01:45:00,
2013-06-18 20:47:00,75.5,59.7,29.88,ENE,74,0.0,0.0,58,0.00,,,0.00,9,Wunderground v.1.15,2013-06-19 01:47:00,
2013-06-18 20:49:00,75.2,59.9,29.88,ENE,74,0.0,0.0,59,0.00,,,0.00,7,Wunderground v.1.15,2013-06-19 01:49:00,
2013-06-18 20:50:00,75.0,60.2,29.88,ENE,74,0.0,0.0,60,0.00,,,0.00,7,Wunderground v.1.15,2013-06-19 01:50:00,
2013-06-18 20:51:00,75.0,60.2,29.88,ENE,74,0.0,0.0,60,0.00,,,0.00,7,Wunderground v.1.15,2013-06-19 01:51:00,
2013-06-18 20:52:00,74.9,59.6,29.88,ENE,74,0.0,0.0,59,0.00,,,0.00,7,Wunderground v.1.15,2013-06-19 01:52:00,
2013-06-18 20:55:00,74.8,60.0,29.88,ENE,74,0.0,0.0,60,0.00,,,0.00,5,Wunderground v.1.15,2013-06-19 01:55:00,
2013-06-18 20:56:00,74.8,60.0,29.88,ENE,74,0.0,0.0,60,0.00,,,0.00,5,Wunderground v.1.15,2013-06-19 01:56:00,
2013-06-18 20:58:00,74.7,59.9,29.88,ENE,74,0.0,0.0,60,0.00,,,0.00,0,Wunderground v.1.15,2013-06-19 01:58:00,
2013-06-18 20:59:00,74.7,59.9,29.88,ENE,74,0.0,0.0,60,0.00,,,0.00,0,Wunderground v.1.15,2013-06-19 01:59:00,
2013-06-18 21:01:00,74.5,59.7,29.88,ENE,74,0.0,0.0,60,0.00,,,0.00,0,Wunderground v.1.15,2013-06-19 02:01:00,
2013-06-18 21:04:00,74.3,60.0,29.88,ENE,74,0.0,0.0,61,0.00,,,0.00,0,Wunderground v.1.15,2013-06-19 02:04:00,
2013-06-18 21:06:00,74.2,59.9,29.88,ENE,74,0.0,1.0,61,0.00,,,0.00,0,Wunderground v.1.15,2013-06-19 02:06:00,
2013-06-18 21:08:00,74.2,59.9,29.89,ENE,74,0.0,1.0,61,0.00,,,0.00,0,Wunderground v.1.15,2013-06-19 02:08:00,
2013-06-18 21:09:00,74.1,59.8,29.88,ENE,74,0.0,1.0,61,0.00,,,0.00,0,Wunderground v.1.15,2013-06-19 02:09:00,
2013-06-18 21:12:00,74.0,60.2,29.88,ENE,74,0.0,0.0,62,0.00,,,0.00,0,Wunderground v.1.15,2013-06-19 02:12:00,
2013-06-18 21:14:00,73.8,60.0,29.89,ENE,74,0.0,0.0,62,0.00,,,0.00,0,Wunderground v.1.15,2013-06-19 02:14:00,
2013-06-18 21:15:00,73.8,60.0,29.89,ENE,74,0.0,0.0,62,0.00,,,0.00,0,Wunderground v.1.15,2013-06-19 02:15:00,
2013-06-18 21:17:00,73.8,60.0,29.89,ENE,74,0.0,0.0,62,0.00,,,0.00,0,Wunderground v.1.15,2013-06-19 02:17:00,
2013-06-18 21:19:00,73.8,60.0,29.89,ENE,74,0.0,0.0,62,0.00,,,0.00,0,Wunderground v.1.15,2013-06-19 02:19:00,
2013-06-18 21:21:00,73.7,59.9,29.89,ENE,74,0.0,0.0,62,0.00,,,0.00,0,Wunderground v.1.15,2013-06-19 02:21:00,
2013-06-18 21:23:00,73.7,59.9,29.89,ENE,74,1.0,2.0,62,0.00,,,0.00,0,Wunderground v.1.15,2013-06-19 02:23:00,
2013-06-18 21:24:00,73.6,59.8,29.89,ENE,74,0.0,2.0,62,0.00,,,0.00,0,Wunderground v.1.15,2013-06-19 02:24:00,
2013-06-18 21:25:00,73.6,59.8,29.89,ENE,74,0.0,2.0,62,0.00,,,0.00,0,Wunderground v.1.15,2013-06-19 02:25:00,
2013-06-18 21:28:00,73.5,60.1,29.89,ENE,74,0.0,2.0,63,0.00,,,0.00,0,Wunderground v.1.15,2013-06-19 02:28:00,
2013-06-18 21:29:00,73.4,60.0,29.89,ENE,74,0.0,2.0,63,0.00,,,0.00,0,Wunderground v.1.15,2013-06-19 02:29:00,
2013-06-18 21:30:00,73.3,59.9,29.89,ENE,77,0.0,1.0,63,0.00,,,0.00,0,Wunderground v.1.15,2013-06-19 02:30:00,
2013-06-18 21:31:00,73.4,60.0,29.89,ENE,77,0.0,1.0,63,0.00,,,0.00,0,Wunderground v.1.15,2013-06-19 02:31:00,
2013-06-18 21:34:00,73.3,59.9,29.89,ENE,77,0.0,1.0,63,0.00,,,0.00,0,Wunderground v.1.15,2013-06-19 02:34:00,
2013-06-18 21:36:00,73.3,59.9,29.90,ENE,77,0.0,1.0,63,0.00,,,0.00,0,Wunderground v.1.15,2013-06-19 02:36:00,
2013-06-18 21:37:00,73.3,59.9,29.90,ENE,77,0.0,1.0,63,0.00,,,0.00,0,Wunderground v.1.15,2013-06-19 02:37:00,
2013-06-18 21:38:00,73.3,59.9,29.90,ENE,77,0.0,1.0,63,0.00,,,0.00,0,Wunderground v.1.15,2013-06-19 02:38:00,
2013-06-18 21:40:00,73.1,60.2,29.90,ENE,77,0.0,0.0,64,0.00,,,0.00,0,Wunderground v.1.15,2013-06-19 02:40:00,
2013-06-18 21:41:00,73.1,60.2,29.90,ENE,77,0.0,0.0,64,0.00,,,0.00,0,Wunderground v.1.15,2013-06-19 02:41:00,
2013-06-18 21:42:00,73.1,60.2,29.90,ENE,77,0.0,0.0,64,0.00,,,0.00,0,Wunderground v.1.15,2013-06-19 02:42:00,
2013-06-18 21:43:00,73.1,60.2,29.90,ENE,77,0.0,0.0,64,0.00,,,0.00,0,Wunderground v.1.15,2013-06-19 02:43:00,
2013-06-18 21:45:00,73.1,60.2,29.90,ENE,77,0.0,0.0,64,0.00,,,0.00,0,Wunderground v.1.15,2013-06-19 02:45:00,
2013-06-18 21:46:00,73.0,60.1,29.90,ENE,77,0.0,0.0,64,0.00,,,0.00,0,Wunderground v.1.15,2013-06-19 02:46:00,
2013-06-18 21:47:00,73.0,60.1,29.90,ENE,77,0.0,0.0,64,0.00,,,0.00,0,Wunderground v.1.15,2013-06-19 02:47:00,
2013-06-18 21:48:00,73.0,60.5,29.90,ENE,77,0.0,0.0,65,0.00,,,0.00,0,Wunderground v.1.15,2013-06-19 02:48:00,
2013-06-18 21:49:00,72.9,60.4,29.90,ENE,77,0.0,0.0,65,0.00,,,0.00,0,Wunderground v.1.15,2013-06-19 02:49:00,
2013-06-18 21:50:00,72.9,60.4,29.90,ENE,77,0.0,0.0,65,0.00,,,0.00,0,Wunderground v.1.15,2013-06-19 02:50:00,
2013-06-18 21:53:00,72.6,60.2,29.90,ENE,77,0.0,0.0,65,0.00,,,0.00,0,Wunderground v.1.15,2013-06-19 02:53:00,
2013-06-18 21:54:00,72.6,60.6,29.90,ENE,77,0.0,0.0,66,0.00,,,0.00,0,Wunderground v.1.15,2013-06-19 02:54:00,
2013-06-18 21:55:00,72.5,60.1,29.90,ENE,77,0.0,0.0,65,0.00,,,0.00,0,Wunderground v.1.15,2013-06-19 02:55:00,
2013-06-18 21:56:00,72.4,60.4,29.90,ENE,77,0.0,0.0,66,0.00,,,0.00,0,Wunderground v.1.15,2013-06-19 02:56:00,
2013-06-18 22:00:00,72.3,60.3,29.90,ENE,77,0.0,0.0,66,0.00,,,0.00,0,Wunderground v.1.15,2013-06-19 03:00:00,
2013-06-18 22:01:00,72.2,60.6,29.89,ENE,77,0.0,0.0,67,0.00,,,0.00,0,Wunderground v.1.15,2013-06-19 03:01:00,
2013-06-18 22:02:00,72.1,60.5,29.90,ENE,77,0.0,0.0,67,0.00,,,0.00,0,Wunderground v.1.15,2013-06-19 03:02:00,
2013-06-18 22:05:00,71.7,60.2,29.90,ENE,78,1.0,2.0,67,0.00,,,0.00,0,Wunderground v.1.15,2013-06-19 03:05:00,
2013-06-18 22:06:00,71.8,60.2,29.89,ENE,78,0.0,2.0,67,0.00,,,0.00,0,Wunderground v.1.15,2013-06-19 03:06:00,
2013-06-18 22:07:00,71.8,60.2,29.89,ENE,78,0.0,2.0,67,0.00,,,0.00,0,Wunderground v.1.15,2013-06-19 03:07:00,
2013-06-18 22:12:00,71.6,60.5,29.90,ENE,78,0.0,2.0,68,0.00,,,0.00,0,Wunderground v.1.15,2013-06-19 03:12:00,
2013-06-18 22:13:00,71.6,60.5,29.90,ENE,78,0.0,2.0,68,0.00,,,0.00,0,Wunderground v.1.15,2013-06-19 03:13:00,
2013-06-18 22:17:00,71.6,60.5,29.90,ENE,78,0.0,2.0,68,0.00,,,0.00,0,Wunderground v.1.15,2013-06-19 03:17:00,
2013-06-18 22:18:00,71.6,60.5,29.90,ENE,78,0.0,2.0,68,0.00,,,0.00,0,Wunderground v.1.15,2013-06-19 03:18:00,
2013-06-18 22:19:00,71.7,60.6,29.90,ENE,78,1.0,2.0,68,0.00,,,0.00,0,Wunderground v.1.15,2013-06-19 03:19:00,
2013-06-18 22:22:00,71.6,60.5,29.90,ENE,78,0.0,0.0,68,0.00,,,0.00,0,Wunderground v.1.15,2013-06-19 03:22:00,
2013-06-18 22:24:00,71.6,60.5,29.90,ENE,78,0.0,0.0,68,0.00,,,0.00,0,Wunderground v.1.15,2013-06-19 03:24:00,
2013-06-18 22:25:00,71.6,60.5,29.90,ENE,78,0.0,0.0,68,0.00,,,0.00,0,Wunderground v.1.15,2013-06-19 03:25:00,
2013-06-18 22:27:00,71.5,60.8,29.90,ENE,78,0.0,2.0,69,0.00,,,0.00,0,Wunderground v.1.15,2013-06-19 03:27:00,
2013-06-18 22:29:00,71.5,60.8,29.90,ENE,78,0.0,2.0,69,0.00,,,0.00,0,Wunderground v.1.15,2013-06-19 03:29:00,
2013-06-18 22:30:00,71.5,60.4,29.90,ENE,78,0.0,0.0,68,0.00,,,0.00,0,Wunderground v.1.15,2013-06-19 03:30:00,
2013-06-18 22:31:00,71.5,60.8,29.90,ENE,78,0.0,0.0,69,0.00,,,0.00,0,Wunderground v.1.15,2013-06-19 03:31:00,
2013-06-18 22:32:00,71.6,60.9,29.90,ENE,78,0.0,0.0,69,0.00,,,0.00,0,Wunderground v.1.15,2013-06-19 03:32:00,
2013-06-18 22:34:00,71.6,60.9,29.90,ENE,78,0.0,0.0,69,0.00,,,0.00,0,Wunderground v.1.15,2013-06-19 03:34:00,
2013-06-18 22:35:00,71.6,60.9,29.90,ENE,78,0.0,1.0,69,0.00,,,0.00,0,Wunderground v.1.15,2013-06-19 03:35:00,
2013-06-18 22:37:00,71.7,61.0,29.90,ENE,78,0.0,1.0,69,0.00,,,0.00,0,Wunderground v.1.15,2013-06-19 03:37:00,
2013-06-18 22:39:00,71.6,60.9,29.90,ENE,78,0.0,1.0,69,0.00,,,0.00,0,Wunderground v.1.15,2013-06-19 03:39:00,
2013-06-18 22:40:00,71.5,60.8,29.90,ENE,78,0.0,0.0,69,0.00,,,0.00,0,Wunderground v.1.15,2013-06-19 03:40:00,
2013-06-18 22:41:00,71.5,60.8,29.90,ENE,78,0.0,0.0,69,0.00,,,0.00,0,Wunderground v.1.15,2013-06-19 03:41:00,
2013-06-18 22:42:00,71.5,60.8,29.90,ENE,78,0.0,0.0,69,0.00,,,0.00,0,Wunderground v.1.15,2013-06-19 03:42:00,
2013-06-18 22:44:00,71.4,61.1,29.90,ENE,78,1.0,1.0,70,0.00,,,0.00,0,Wunderground v.1.15,2013-06-19 03:44:00,
2013-06-18 22:45:00,71.2,60.9,29.90,ENE,78,0.0,1.0,70,0.00,,,0.00,0,Wunderground v.1.15,2013-06-19 03:45:00,
2013-06-18 22:46:00,71.2,60.9,29.90,ENE,78,0.0,1.0,70,0.00,,,0.00,0,Wunderground v.1.15,2013-06-19 03:46:00,
2013-06-18 22:47:00,71.1,60.8,29.90,ENE,78,0.0,1.0,70,0.00,,,0.00,0,Wunderground v.1.15,2013-06-19 03:47:00,
2013-06-18 22:50:00,70.8,60.9,29.90,ENE,78,0.0,0.0,71,0.00,,,0.00,0,Wunderground v.1.15,2013-06-19 03:50:00,
2013-06-18 22:51:00,70.8,60.9,29.90,ENE,78,0.0,0.0,71,0.00,,,0.00,0,Wunderground v.1.15,2013-06-19 03:51:00,
2013-06-18 22:53:00,70.7,60.8,29.90,ENE,78,0.0,0.0,71,0.00,,,0.00,0,Wunderground v.1.15,2013-06-19 03:53:00,
2013-06-18 22:54:00,70.7,61.2,29.90,ENE,78,0.0,0.0,72,0.00,,,0.00,0,Wunderground v.1.15,2013-06-19 03:54:00,
2013-06-18 22:57:00,70.8,61.3,29.90,ENE,78,0.0,0.0,72,0.00,,,0.00,0,Wunderground v.1.15,2013-06-19 03:57:00,
2013-06-18 22:58:00,70.8,60.9,29.90,ENE,78,0.0,0.0,71,0.00,,,0.00,0,Wunderground v.1.15,2013-06-19 03:58:00,
2013-06-18 22:59:00,70.8,61.3,29.90,ENE,78,0.0,0.0,72,0.00,,,0.00,0,Wunderground v.1.15,2013-06-19 03:59:00,
2013-06-18 23:00:00,70.8,61.3,29.90,ENE,78,2.0,2.0,72,0.00,,,0.00,0,Wunderground v.1.15,2013-06-19 04:00:00,
2013-06-18 23:01:00,70.8,61.3,29.90,ENE,78,0.0,2.0,72,0.00,,,0.00,0,Wunderground v.1.15,2013-06-19 04:01:00,
2013-06-18 23:03:00,70.8,61.3,29.90,East,79,1.0,3.0,72,0.00,,,0.00,0,Wunderground v.1.15,2013-06-19 04:03:00,
2013-06-18 23:06:00,70.6,61.1,29.90,East,79,0.0,3.0,72,0.00,,,0.00,0,Wunderground v.1.15,2013-06-19 04:06:00,
2013-06-18 23:08:00,70.6,61.1,29.90,East,79,1.0,3.0,72,0.00,,,0.00,0,Wunderground v.1.15,2013-06-19 04:08:00,
2013-06-18 23:09:00,70.5,61.0,29.90,East,80,1.0,3.0,72,0.00,,,0.00,0,Wunderground v.1.15,2013-06-19 04:09:00,
2013-06-18 23:11:00,70.4,60.9,29.90,East,80,1.0,2.0,72,0.00,,,0.00,0,Wunderground v.1.15,2013-06-19 04:11:00,
2013-06-18 23:12:00,70.4,60.9,29.90,East,80,1.0,2.0,72,0.00,,,0.00,0,Wunderground v.1.15,2013-06-19 04:12:00,
2013-06-18 23:13:00,70.5,61.0,29.90,East,82,1.0,3.0,72,0.00,,,0.00,0,Wunderground v.1.15,2013-06-19 04:13:00,
2013-06-18 23:15:00,70.4,60.9,29.90,East,82,0.0,3.0,72,0.00,,,0.00,0,Wunderground v.1.15,2013-06-19 04:15:00,
2013-06-18 23:17:00,70.3,61.2,29.90,East,82,0.0,3.0,73,0.00,,,0.00,0,Wunderground v.1.15,2013-06-19 04:17:00,
2013-06-18 23:18:00,70.2,61.1,29.90,East,82,0.0,3.0,73,0.00,,,0.00,0,Wunderground v.1.15,2013-06-19 04:18:00,
2013-06-18 23:20:00,70.1,61.0,29.90,East,82,0.0,1.0,73,0.00,,,0.00,0,Wunderground v.1.15,2013-06-19 04:20:00,
2013-06-18 23:21:00,70.1,61.0,29.90,East,82,0.0,1.0,73,0.00,,,0.00,0,Wunderground v.1.15,2013-06-19 04:21:00,
2013-06-18 23:23:00,70.0,60.9,29.91,East,82,0.0,1.0,73,0.00,,,0.00,0,Wunderground v.1.15,2013-06-19 04:23:00,
2013-06-18 23:24:00,70.0,60.9,29.91,East,82,0.0,1.0,73,0.00,,,0.00,0,Wunderground v.1.15,2013-06-19 04:24:00,
2013-06-18 23:26:00,69.8,61.1,29.91,East,82,0.0,1.0,74,0.00,,,0.00,0,Wunderground v.1.15,2013-06-19 04:26:00,
2013-06-18 23:28:00,69.6,60.9,29.91,East,82,0.0,1.0,74,0.00,,,0.00,0,Wunderground v.1.15,2013-06-19 04:28:00,
2013-06-18 23:29:00,69.6,60.9,29.91,East,82,0.0,1.0,74,0.00,,,0.00,0,Wunderground v.1.15,2013-06-19 04:29:00,
2013-06-18 23:30:00,69.5,60.8,29.91,East,82,0.0,0.0,74,0.00,,,0.00,0,Wunderground v.1.15,2013-06-19 04:30:00,
2013-06-18 23:31:00,69.5,60.8,29.91,East,82,0.0,0.0,74,0.00,,,0.00,0,Wunderground v.1.15,2013-06-19 04:31:00,
2013-06-18 23:32:00,69.4,60.8,29.91,East,82,0.0,0.0,74,0.00,,,0.00,0,Wunderground v.1.15,2013-06-19 04:32:00,
2013-06-18 23:34:00,69.3,61.0,29.91,East,82,0.0,0.0,75,0.00,,,0.00,0,Wunderground v.1.15,2013-06-19 04:34:00,
2013-06-18 23:35:00,69.3,61.0,29.91,East,82,0.0,0.0,75,0.00,,,0.00,0,Wunderground v.1.15,2013-06-19 04:35:00,
2013-06-18 23:36:00,69.1,60.8,29.91,East,82,0.0,0.0,75,0.00,,,0.00,0,Wunderground v.1.15,2013-06-19 04:36:00,
2013-06-18 23:37:00,69.1,60.8,29.91,East,82,0.0,0.0,75,0.00,,,0.00,0,Wunderground v.1.15,2013-06-19 04:37:00,
2013-06-18 23:38:00,69.1,60.8,29.91,East,82,0.0,0.0,75,0.00,,,0.00,0,Wunderground v.1.15,2013-06-19 04:38:00,
2013-06-18 23:39:00,69.0,60.7,29.91,East,82,0.0,0.0,75,0.00,,,0.00,0,Wunderground v.1.15,2013-06-19 04:39:00,
2013-06-18 23:40:00,69.0,61.1,29.91,East,82,0.0,0.0,76,0.00,,,0.00,0,Wunderground v.1.15,2013-06-19 04:40:00,
2013-06-18 23:42:00,68.8,60.9,29.91,East,82,0.0,0.0,76,0.00,,,0.00,0,Wunderground v.1.15,2013-06-19 04:42:00,
2013-06-18 23:43:00,68.7,60.8,29.91,East,82,0.0,0.0,76,0.00,,,0.00,0,Wunderground v.1.15,2013-06-19 04:43:00,
2013-06-18 23:44:00,68.7,61.2,29.91,East,82,0.0,0.0,77,0.00,,,0.00,0,Wunderground v.1.15,2013-06-19 04:44:00,
2013-06-18 23:45:00,68.7,60.8,29.91,East,96,1.0,3.0,76,0.00,,,0.00,0,Wunderground v.1.15,2013-06-19 04:45:00,
2013-06-18 23:46:00,68.7,61.2,29.91,East,92,3.0,3.0,77,0.00,,,0.00,0,Wunderground v.1.15,2013-06-19 04:46:00,
2013-06-18 23:47:00,68.8,61.3,29.91,East,92,2.0,3.0,77,0.00,,,0.00,0,Wunderground v.1.15,2013-06-19 04:47:00,
2013-06-18 23:48:00,68.9,61.4,29.91,East,97,3.0,3.0,77,0.00,,,0.00,0,Wunderground v.1.15,2013-06-19 04:48:00,
2013-06-18 23:51:00,69.1,61.6,29.91,East,98,2.0,2.0,77,0.00,,,0.00,0,Wunderground v.1.15,2013-06-19 04:51:00,
2013-06-18 23:52:00,69.1,61.6,29.91,ESE,102,3.0,3.0,77,0.00,,,0.00,0,Wunderground v.1.15,2013-06-19 04:52:00,
2013-06-18 23:54:00,69.2,61.3,29.91,East,101,2.0,3.0,76,0.00,,,0.00,0,Wunderground v.1.15,2013-06-19 04:54:00,
2013-06-18 23:55:00,69.3,61.4,29.91,East,101,1.0,3.0,76,0.00,,,0.00,0,Wunderground v.1.15,2013-06-19 04:55:00,
2013-06-18 23:57:00,69.3,61.4,29.91,ESE,102,1.0,5.0,76,0.00,,,0.00,0,Wunderground v.1.15,2013-06-19 04:57:00,
2013-06-18 23:59:00,69.4,61.5,29.91,East,100,2.0,5.0,76,0.00,,,0.00,0,Wunderground v.1.15,2013-06-19 04:59:00,